GFSMW_700_rhum_060.txt.gz
RH
85 69 64 64 64 66 63 58 55 56 53 52 51 48 41 39 39 38 37 36 36 36 34 30 29 28 26 26 25 30 34 42 42 48 41 45 57 62 34 24 26 34 36
72 68 61 54 53 52 48 45 44 43 41 39 36 33 29 26 25 25 25 25 25 25 25 24 24 23 23 23 22 25 32 31 30 36 37 25 22 23 23 48 37 39 47
57 71 67 72 57 54 48 47 45 42 40 39 38 36 34 32 30 29 30 30 31 31 30 30 29 27 26 28 31 34 40 39 29 42 34 46 35 35 26 31 26 27 31
58 63 73 72 61 55 50 49 47 45 41 38 34 33 32 32 30 31 31 31 28 25 21 18 16 16 17 19 22 20 20 21 21 23 29 45 45 25 31 20 22 26 36
74 82 68 62 60 59 54 53 48 45 40 37 36 35 35 36 37 36 32 28 24 21 17 14 12 12 13 14 15 16 18 20 21 22 22 22 25 24 23 22 29 50 45
72 89 78 76 65 61 60 55 41 40 41 41 42 44 45 42 36 31 28 24 21 17 14 12 12 12 14 16 18 19 20 21 22 22 22 21 23 38 42 38 63 73 66
48 61 62 61 74 69 59 49 40 40 45 45 42 41 39 37 34 32 28 22 16 13 12 13 14 15 16 17 17 17 17 17 18 20 22 25 30 36 49 50 63 74 67
31 27 51 66 70 70 63 49 45 46 48 48 47 48 47 46 43 34 28 22 16 13 14 15 16 16 16 16 15 16 19 24 26 28 29 32 35 39 48 59 63 74 46
35 31 28 32 59 59 53 52 52 53 54 53 50 49 47 45 40 31 25 20 16 17 19 18 18 17 16 18 23 24 20 16 14 13 14 18 22 28 35 60 47 46 43
27 29 28 29 28 28 37 44 56 58 60 59 56 50 46 38 31 27 23 21 20 20 20 18 18 18 25 28 24 20 17 14 16 25 33 36 37 40 43 39 33 29 27
33 26 27 28 26 28 33 42 52 54 59 62 56 48 37 34 29 26 25 22 21 20 21 22 26 27 29 25 24 23 22 28 36 41 40 37 30 24 24 25 25 24 25
38 32 28 25 30 31 33 44 58 65 63 57 51 44 36 31 28 26 25 23 23 22 29 32 32 33 29 29 32 32 34 35 33 29 18 17 21 22 21 22 21 24 30
50 47 34 29 34 38 42 54 64 64 61 51 41 34 32 31 32 39 37 36 37 36 34 36 37 35 31 37 37 38 36 26 18 16 15 15 15 15 17 21 31 40 44
49 48 47 48 52 55 57 56 51 46 40 39 45 48 52 49 46 42 40 38 37 39 38 41 43 38 36 40 41 29 21 17 18 21 25 27 32 39 44 39 40 36 42
60 57 51 49 48 47 44 43 46 52 57 56 58 59 54 49 47 42 42 42 38 40 45 49 49 40 42 47 29 21 19 23 32 36 30 33 35 19 8 5 5 5 5
68 57 53 53 53 52 50 56 58 64 66 65 64 59 52 48 45 41 41 44 48 48 51 56 55 55 51 31 22 21 27 40 32 20 19 14 9 8 9 11 13 14 14
64 56 60 64 59 56 56 55 53 54 64 70 68 59 52 48 43 40 41 45 54 58 58 60 60 53 33 25 24 32 44 26 20 15 11 12 13 14 16 19 21 22 23
48 58 63 58 57 57 57 58 54 52 50 68 70 60 53 47 41 43 45 50 57 60 61 60 44 34 30 30 45 46 27 21 18 16 15 16 19 22 24 27 29 30 30
38 63 62 66 58 56 58 62 59 54 49 74 71 59 52 44 40 41 45 47 52 51 41 35 36 43 43 55 42 26 22 20 19 19 21 24 28 30 30 31 32 32 32
34 60 66 67 58 53 58 63 62 56 60 75 70 58 50 38 32 42 42 50 52 50 54 55 53 59 52 32 24 23 22 22 24 27 30 30 30 32 35 35 34 34 31
52 68 69 69 61 59 64 63 64 61 56 78 70 58 44 29 27 31 39 46 54 56 56 58 50 32 26 25 25 25 25 28 32 32 30 31 34 36 38 37 35 31 27
56 67 67 67 64 64 66 70 66 64 62 84 73 61 40 29 25 29 32 38 47 50 42 31 28 25 25 26 27 29 32 34 33 30 31 32 34 38 41 41 37 30 22
55 55 62 66 68 69 71 69 66 65 75 94 95 90 44 30 26 28 31 32 32 30 28 26 26 26 28 30 32 35 36 34 32 32 32 31 33 41 45 45 45 39 26
79 75 74 74 73 71 70 70 75 87 99 100 93 74 50 34 27 28 30 31 30 29 28 28 28 29 31 34 36 36 36 34 33 32 32 32 32 36 40 45 50 46 33
81 70 74 79 77 77 81 89 99 100 99 98 98 97 85 50 32 28 30 30 30 31 30 30 30 31 32 35 36 36 36 35 34 34 34 34 34 36 41 45 51 50 43
95 98 98 97 96 95 97 97 98 98 99 99 98 98 97 69 49 32 30 31 32 32 32 32 32 33 33 34 35 36 36 36 37 37 37 38 39 39 43 46 53 52 48

GFSMW_700_rhum_066.txt.gz
RH
70 73 65 72 73 65 61 59 59 61 59 56 52 48 47 46 44 39 39 38 39 39 39 39 34 28 26 26 26 27 28 28 30 34 36 49 46 43 50 41 40 37 38
68 80 72 59 73 75 67 66 66 63 58 52 52 51 49 45 43 44 45 44 38 31 27 25 25 26 28 30 32 33 34 33 31 27 28 34 34 34 32 24 20 20 26
66 66 68 63 60 73 73 68 66 65 60 51 50 49 45 45 50 49 48 32 32 30 29 28 29 29 30 31 31 28 24 20 17 19 20 36 26 21 21 25 24 23 25
68 72 76 70 59 64 77 75 70 66 66 61 53 54 54 52 49 46 56 38 38 35 33 33 31 32 33 30 27 24 22 18 15 14 15 20 25 33 24 23 24 25 25
66 72 72 69 59 53 58 74 72 71 68 67 60 52 48 44 42 40 40 38 36 35 35 36 37 35 31 28 23 19 16 14 13 16 17 18 20 22 24 24 24 28 25
57 58 59 65 59 54 59 72 72 65 61 51 49 50 48 48 46 44 42 41 39 39 42 41 34 31 30 26 22 17 13 13 14 16 18 19 19 17 20 24 28 31 36
33 30 30 46 67 75 74 73 76 71 60 53 56 56 51 56 60 59 57 47 46 44 40 38 43 42 38 30 25 17 14 14 16 16 16 17 20 25 30 30 29 36 51
52 49 35 42 41 52 76 80 80 77 65 57 62 63 65 66 63 67 73 68 42 42 45 45 42 40 38 31 24 18 15 16 17 17 19 23 28 25 22 20 20 28 81
32 36 39 46 53 41 67 79 77 72 79 75 72 71 75 79 82 68 57 50 49 50 50 44 38 34 30 26 22 19 18 17 18 21 26 25 22 18 16 18 23 59 76
33 32 30 27 38 40 60 74 80 81 79 82 70 69 79 77 86 76 62 58 55 53 51 42 36 27 24 22 21 21 21 20 22 25 26 24 21 19 25 34 38 72 99
37 37 36 34 31 38 39 40 46 77 75 63 54 64 74 81 82 73 61 59 59 57 48 38 30 28 25 24 24 25 29 30 31 30 28 27 28 34 42 42 38 33 33
37 40 37 35 36 33 28 30 36 34 36 37 51 68 72 68 63 59 61 60 56 44 35 32 28 26 26 27 29 32 34 37 38 35 36 38 39 42 38 26 22 22 20
45 43 32 36 37 37 31 25 28 30 33 32 34 40 50 59 61 60 58 48 41 36 28 25 28 34 37 36 37 38 39 40 40 40 43 44 43 32 20 20 18 18 26
44 38 36 32 39 44 39 30 28 28 35 39 40 53 67 70 65 60 51 41 34 34 35 41 40 39 40 40 39 39 43 46 46 45 48 41 26 21 21 28 34 38 32
36 30 28 30 53 50 41 40 43 44 41 43 53 60 62 60 52 42 43 45 48 46 46 44 42 40 38 43 45 44 47 50 46 50 41 27 22 31 37 34 25 9 6
32 26 26 25 43 56 50 43 47 50 58 61 60 53 46 46 50 53 56 55 52 49 46 44 42 40 40 46 52 54 58 53 55 44 29 26 44 41 22 10 8 11 14
53 50 48 31 30 60 60 48 48 51 50 50 50 56 60 61 60 62 64 65 59 52 47 44 41 40 45 54 60 62 67 63 47 32 32 47 34 14 9 12 15 18 22
46 52 61 48 34 43 64 54 51 50 50 50 52 55 52 49 47 47 59 66 61 53 47 42 39 40 53 64 68 73 68 49 34 35 42 18 11 13 15 19 23 26 27
57 51 61 62 47 35 42 63 54 57 56 53 56 58 57 54 49 47 58 67 58 50 40 34 45 46 59 70 75 65 49 40 56 37 20 15 16 18 23 28 30 28 34
74 62 64 71 62 51 39 61 64 65 61 61 58 62 61 57 55 52 59 68 56 42 29 32 43 52 66 67 55 43 46 57 28 22 18 19 23 27 31 31 32 33 37
65 78 59 62 63 50 45 64 75 68 64 63 59 64 65 65 60 57 57 69 49 29 29 37 52 53 47 47 49 63 55 29 23 21 22 26 32 33 31 32 32 34 41
56 65 77 59 67 72 74 69 70 76 77 77 62 66 67 68 64 61 64 73 44 40 38 40 61 62 59 62 66 46 26 24 23 25 30 35 34 32 31 31 32 35 38
48 56 73 75 63 67 73 71 68 75 72 66 64 69 67 70 67 67 78 81 41 61 52 51 64 66 67 57 33 26 26 26 27 31 36 36 34 32 32 32 32 33 36
43 55 65 84 78 74 65 68 71 70 70 72 71 70 71 71 71 75 84 94 96 65 60 55 61 50 34 27 26 26 27 29 32 35 37 36 34 33 33 33 34 36 39
40 69 74 80 98 88 78 78 78 78 77 78 77 74 74 76 80 91 98 98 45 57 54 53 37 30 27 26 26 28 30 33 35 36 37 37 36 36 36 36 37 40 44
32 64 85 98 85 98 100 97 89 91 91 96 98 92 91 100 99 96 97 97 79 55 61 40 31 29 27 28 28 29 31 32 34 35 36 37 38 38 38 38 39 53 45

GFSMW_700_rhum_069.txt.gz
RH
56 69 69 71 75 68 61 59 59 60 56 53 48 47 49 50 56 52 44 46 38 38 38 41 41 37 27 24 25 26 27 27 29 26 23 19 17 15 18 31 33 25 26
67 69 56 62 67 69 67 70 64 64 60 60 57 55 54 51 52 52 50 42 42 41 43 36 29 27 27 28 29 30 30 27 26 24 21 18 16 13 12 16 21 20 21
55 66 63 56 60 61 62 63 64 68 68 66 64 57 55 51 50 49 45 45 50 43 34 33 32 33 33 33 31 30 30 28 26 24 22 18 15 15 17 20 18 21 21
73 56 68 60 61 68 63 57 61 72 70 69 70 68 55 54 56 56 51 50 52 59 40 40 40 39 36 35 32 32 30 27 22 18 16 15 15 16 16 18 20 23 22
64 54 60 64 67 68 68 63 64 65 68 74 67 72 77 62 63 61 52 47 48 48 46 44 41 40 40 38 34 30 29 26 23 19 14 14 17 18 21 19 20 20 22
58 68 65 67 74 69 61 55 54 55 63 75 74 74 76 73 64 56 46 45 48 46 43 42 43 44 42 36 39 40 37 32 26 19 14 16 17 18 20 18 19 21 27
53 70 67 67 66 70 68 70 74 69 68 74 76 69 67 68 65 62 56 53 54 61 64 61 51 43 40 44 43 40 38 35 30 22 16 17 18 18 20 23 27 28 25
53 46 54 56 42 36 45 60 53 72 77 87 78 62 58 58 60 63 64 67 70 71 79 73 60 45 46 46 40 35 33 32 28 23 18 17 17 20 26 27 24 20 21
51 44 38 34 28 29 44 52 59 79 83 94 96 88 71 70 69 76 78 86 77 78 81 81 54 48 47 48 40 33 26 24 22 21 20 19 20 23 27 24 20 20 25
34 30 34 37 35 35 34 35 38 64 82 78 78 86 96 90 88 85 78 80 87 87 76 61 59 56 54 44 35 29 27 24 22 22 23 24 29 30 27 23 22 32 40
43 40 37 35 37 35 30 32 34 44 70 80 79 82 86 90 86 75 69 75 81 75 74 66 58 54 44 34 31 28 25 24 25 27 31 32 32 32 30 32 37 44 43
42 42 39 34 35 33 33 30 30 31 38 47 57 70 69 59 53 55 70 78 84 78 65 61 57 43 37 29 26 29 31 31 33 34 36 39 36 34 39 42 43 38 25
54 39 37 38 37 34 34 33 32 30 28 30 37 39 37 40 52 63 68 70 69 65 62 57 46 36 30 30 34 37 38 38 38 39 40 43 41 41 43 44 32 21 21
64 52 36 32 33 30 38 42 40 35 28 30 31 34 37 37 44 55 62 68 68 61 53 42 35 36 40 42 40 40 39 40 43 44 46 48 44 45 44 28 21 22 28
62 55 41 33 29 26 41 52 46 40 35 32 36 42 44 53 60 67 70 66 57 46 41 48 51 49 46 42 42 41 40 42 48 53 56 54 52 46 28 22 34 40 38
44 37 36 36 27 22 28 54 55 44 43 45 49 53 61 69 70 60 52 53 56 55 56 56 55 51 47 44 42 41 41 49 56 62 61 58 47 30 28 43 33 14 7
46 44 43 43 46 32 24 42 63 55 50 50 50 50 50 51 54 60 62 57 56 60 64 64 59 53 48 44 40 41 50 61 66 68 65 50 34 41 47 18 8 10 15
61 50 50 48 53 56 40 29 65 61 57 56 53 54 57 62 63 57 55 51 48 50 59 60 57 50 41 36 40 50 64 73 76 73 55 41 56 43 14 10 14 18 23
64 55 66 59 56 65 60 48 41 68 63 61 60 60 60 62 60 62 56 52 50 48 57 62 54 41 32 35 47 60 74 82 74 56 48 54 21 10 12 17 22 28 31
61 58 58 68 57 64 71 61 46 47 67 68 68 68 64 60 62 63 60 59 57 53 59 62 40 29 33 45 53 69 74 66 56 63 46 19 14 16 22 28 32 32 34
55 54 53 55 73 56 67 59 58 60 82 78 72 69 70 66 61 65 67 67 61 58 62 66 32 36 48 50 50 53 57 57 63 35 20 17 21 27 33 35 33 34 34
40 44 51 47 61 70 65 75 77 74 72 80 80 79 75 71 67 70 69 69 66 63 66 65 52 64 55 62 57 59 62 64 36 22 21 24 30 36 36 33 32 32 33
40 38 28 35 55 74 71 67 75 76 70 77 79 82 84 88 71 72 72 72 71 71 80 88 65 55 61 70 72 74 58 29 24 23 26 31 36 38 35 33 33 32 32
40 43 31 39 69 63 83 76 74 74 75 71 72 73 71 72 75 75 76 78 75 78 91 97 89 64 69 73 66 42 28 26 26 27 30 35 38 38 37 35 35 34 35
46 46 42 37 74 77 85 99 90 90 86 80 80 80 80 81 82 81 84 90 85 88 94 92 77 67 61 45 32 26 26 27 28 30 33 36 38 38 38 37 37 37 38
52 48 44 38 48 88 91 93 100 99 99 96 97 94 96 98 98 96 100 100 99 99 90 56 70 70 56 33 27 26 26 28 30 31 34 35 36 38 39 43 67 65 54

GFSMW_700_rhum_072.txt.gz
RH
67 70 79 77 79 66 62 67 74 70 64 60 62 60 56 55 52 49 49 48 47 42 46 36 38 39 40 33 27 26 28 27 28 27 26 24 24 23 21 16 15 17 21
65 62 68 70 71 71 66 62 59 67 64 58 59 58 57 56 55 53 57 60 47 48 42 42 43 44 34 30 30 31 31 29 30 29 27 23 22 19 18 16 15 17 19
62 65 58 59 63 68 64 68 66 60 68 66 67 65 62 60 55 53 51 50 51 50 48 46 44 34 34 35 34 32 32 32 30 30 28 24 20 17 15 13 13 16 19
56 59 64 64 61 63 62 61 64 68 74 75 68 66 65 65 62 67 73 64 55 56 52 51 48 43 38 37 36 35 35 34 31 30 30 29 25 20 15 14 16 19 21
56 55 51 51 65 66 60 62 62 64 62 62 64 72 74 73 75 74 71 73 83 82 75 68 52 46 41 42 42 41 38 37 42 42 38 32 26 20 18 16 16 20 21
48 47 52 58 65 67 68 66 64 68 66 72 76 79 89 85 94 85 74 72 83 81 78 69 62 52 52 52 54 45 39 43 42 39 37 35 30 22 18 17 18 20 24
66 63 64 63 69 70 69 72 68 68 70 72 72 64 81 93 92 98 90 82 83 89 90 82 84 79 72 79 77 63 49 45 42 38 33 31 28 24 21 19 19 22 29
64 68 74 74 70 72 72 73 74 74 70 65 68 70 80 87 85 89 96 92 92 94 92 88 77 68 69 80 77 72 53 50 45 35 29 24 23 23 22 22 23 24 28
55 45 56 64 67 65 63 60 45 41 55 57 80 85 83 76 74 76 74 73 73 78 86 89 88 88 90 77 59 58 53 49 37 30 26 24 23 23 24 25 27 29 25
54 53 54 54 50 40 36 32 29 50 59 59 69 83 82 80 85 83 87 87 86 96 93 84 86 78 81 72 66 63 56 42 32 28 26 24 24 25 28 31 32 30 26
42 40 40 41 40 38 34 28 25 26 31 35 54 80 82 81 82 86 83 91 96 93 80 74 81 87 78 70 63 60 52 34 28 27 29 30 30 34 37 38 36 34 35
49 48 44 41 38 36 35 33 32 32 28 29 35 52 80 84 83 88 88 89 82 79 76 78 81 87 80 66 62 55 38 30 32 36 38 39 38 41 42 42 40 43 47
44 42 40 38 36 37 36 35 31 30 31 32 31 33 41 57 66 63 67 59 60 74 74 78 76 71 67 63 53 38 35 38 42 41 40 42 44 46 49 48 49 53 54
59 54 51 40 36 30 32 33 31 34 35 35 33 29 30 34 41 42 43 52 61 68 72 72 72 70 62 46 39 41 44 44 42 40 38 41 45 50 53 51 54 54 40
66 63 58 50 41 35 35 33 28 37 46 42 38 34 33 34 37 42 51 62 71 76 77 72 60 49 49 51 48 48 45 44 43 41 40 44 51 53 55 53 52 36 27
66 61 55 43 38 36 32 25 23 32 49 46 42 42 42 45 51 60 69 72 72 61 54 55 53 52 54 54 54 52 47 44 42 41 45 53 62 63 59 52 36 31 52
63 48 42 42 40 34 28 32 29 36 48 54 48 48 53 60 64 67 61 60 66 60 53 49 48 49 52 56 56 50 45 41 41 42 53 66 69 69 56 38 41 48 15
50 52 48 42 42 43 35 30 42 35 51 61 61 54 52 58 58 61 68 67 57 54 50 47 47 48 53 56 54 47 38 37 45 58 71 78 76 60 46 57 34 8 10
60 50 48 44 42 51 49 40 47 49 42 66 67 64 59 60 63 64 64 61 62 58 56 57 56 51 55 58 42 29 31 41 59 76 84 78 61 54 62 25 9 14 20
64 58 52 48 46 46 60 55 58 65 64 55 72 74 72 68 66 67 68 67 66 65 65 63 58 55 61 54 32 40 46 50 73 76 67 58 61 36 11 11 19 25 31
46 41 41 41 45 48 44 62 58 68 70 58 63 72 75 75 75 76 72 68 67 70 69 66 62 59 64 54 50 61 58 58 66 60 65 54 25 15 17 24 31 35 35
37 38 35 32 36 35 40 45 61 64 63 74 74 82 82 77 76 79 81 74 71 71 71 70 68 66 73 69 61 57 63 58 62 65 37 61 47 23 28 35 37 36 34
42 38 32 32 36 32 28 48 69 63 71 77 74 73 77 84 85 87 91 84 87 75 75 74 74 75 81 68 65 70 69 68 72 44 25 21 24 29 36 38 37 35 34
49 49 46 42 40 38 33 62 73 78 69 74 78 74 79 84 90 94 95 84 77 80 79 79 82 87 98 98 93 79 82 73 42 25 24 25 29 34 38 39 38 36 35
54 56 54 49 48 49 43 69 75 95 90 86 84 86 84 80 80 80 80 82 85 86 85 88 94 92 98 96 85 76 62 34 26 26 27 30 32 35 38 39 39 39 39
34 56 61 59 56 52 47 68 100 96 90 100 98 93 91 90 93 92 97 94 98 96 98 99 99 98 92 92 86 57 31 26 26 27 57 43 33 35 37 38 39 39 44

GFSMW_700_rhum_075.txt.gz
RH
66 55 70 72 67 58 70 70 64 74 82 86 78 90 91 80 60 61 60 59 55 55 47 42 41 46 36 40 42 38 29 30 30 28 27 26 27 26 25 22 18 16 17
70 65 68 59 71 70 65 64 74 85 81 73 61 70 77 82 74 64 50 48 51 54 56 46 49 42 41 44 43 32 34 33 32 33 32 28 26 26 25 24 21 17 15
67 64 67 70 72 69 72 79 81 76 71 77 68 61 75 74 62 52 49 49 54 65 59 50 52 48 50 48 34 37 36 34 35 36 34 33 31 30 30 28 25 19 16
66 58 55 66 63 66 68 70 73 74 78 71 61 70 72 77 85 82 74 74 70 66 57 61 61 64 59 52 48 43 42 41 41 37 37 43 42 40 35 32 29 23 18
55 62 60 59 66 65 67 67 69 70 71 69 69 69 70 72 82 96 99 99 96 88 75 74 81 82 82 80 84 59 52 63 65 56 46 43 42 38 34 33 30 26 22
60 66 63 64 67 63 57 62 69 68 69 68 75 78 73 78 88 93 98 100 98 95 99 99 99 100 99 92 89 79 72 74 80 78 60 48 47 39 32 28 27 26 24
62 66 68 69 61 62 67 70 70 67 70 70 74 80 82 79 94 85 87 85 94 95 100 99 98 97 99 96 73 90 83 78 76 68 58 52 46 36 31 26 24 24 26
57 61 69 60 56 64 73 77 76 78 84 80 81 81 78 86 89 89 97 94 92 92 96 99 100 98 96 91 89 86 88 84 61 60 60 54 40 31 30 27 25 22 26
58 56 64 64 76 76 74 78 80 81 76 73 72 76 71 72 79 80 87 89 84 92 96 99 92 94 97 86 78 78 81 70 67 63 60 54 35 30 28 28 31 32 28
63 69 71 58 59 58 60 61 61 60 55 48 33 40 56 60 80 79 80 78 80 92 95 93 98 97 94 79 82 81 75 76 70 64 61 44 32 29 30 33 36 36 38
69 66 59 49 42 40 40 36 33 30 29 30 33 48 57 56 78 82 76 79 88 85 88 94 99 99 97 81 85 83 87 86 69 65 50 36 35 38 39 40 41 41 42
44 44 44 43 42 41 38 37 34 32 32 30 30 32 36 41 65 83 81 81 80 89 91 90 95 94 83 82 82 83 86 69 66 56 38 42 42 40 39 40 44 46 49
50 49 48 45 42 40 40 38 35 36 35 31 32 32 31 31 40 54 79 84 84 84 86 87 70 67 77 76 76 71 68 66 52 40 43 44 45 44 41 42 46 50 54
53 51 46 42 41 40 37 37 34 30 32 31 31 36 36 33 31 35 41 53 62 61 60 57 66 72 75 72 69 66 57 45 48 50 47 45 43 43 43 45 53 54 58
65 62 59 56 50 45 43 40 36 35 34 31 30 40 41 39 34 32 34 39 44 47 50 58 64 69 71 65 52 50 51 50 53 49 48 46 44 44 44 49 58 61 59
66 61 58 58 53 47 43 38 36 35 32 27 34 44 43 40 38 35 36 40 49 61 70 72 70 58 57 57 55 56 59 59 57 53 48 45 43 45 50 61 67 65 58
74 70 63 49 42 38 33 31 30 30 31 27 25 47 47 44 48 50 52 57 65 72 68 64 61 53 49 47 45 44 45 48 50 49 44 38 43 53 65 74 73 63 46
64 52 47 50 48 43 39 35 34 33 37 40 30 41 57 51 54 62 69 70 64 62 65 59 55 52 52 53 52 49 48 52 47 35 31 40 56 72 81 78 64 52 61
68 67 63 54 48 45 42 40 36 40 43 48 49 38 63 61 58 59 60 65 66 66 60 59 60 58 60 59 55 53 56 51 35 44 47 59 78 84 77 62 68 43 11
68 63 56 49 41 36 37 38 39 37 49 53 66 53 54 69 65 63 63 68 67 66 63 65 66 65 67 64 58 54 56 48 51 59 61 75 77 68 65 52 18 12 18
72 63 56 50 44 37 31 34 35 37 39 56 68 72 55 57 71 70 66 64 67 68 66 65 69 70 70 68 65 62 62 66 62 58 62 68 66 63 23 14 17 29 53
41 39 36 35 35 33 30 28 31 30 36 52 62 72 67 58 65 76 75 73 74 77 76 72 72 74 74 74 70 68 68 67 59 62 60 64 56 26 61 49 49 44 37
44 43 44 43 42 41 35 30 33 32 32 48 65 72 73 74 76 85 83 79 78 80 82 83 82 84 79 77 75 74 82 74 78 66 65 58 28 62 80 43 34 39 38
39 38 41 48 55 53 48 45 43 40 42 62 74 69 76 78 76 77 81 89 89 88 90 93 88 82 84 81 85 83 96 94 81 76 70 37 22 23 26 32 38 40 40
10 10 11 22 48 62 60 55 54 50 62 85 92 86 81 80 77 77 85 88 93 94 89 83 83 85 87 88 91 89 93 84 84 78 46 24 24 29 30 34 38 40 40
23 22 22 20 15 19 63 68 61 56 64 100 100 100 100 90 86 85 83 84 85 87 89 89 94 94 92 99 98 98 96 86 73 45 26 25 26 31 32 35 65 42 39

GFSMW_700_rhum_081.txt.gz
RH
95 92 98 97 100 88 99 87 98 83 96 92 92 87 83 85 78 71 79 80 76 68 54 57 55 56 52 50 47 45 46 41 44 46 33 35 35 36 34 36 37 36 35
90 95 100 100 98 92 98 93 97 99 100 94 100 99 96 92 75 73 78 87 90 82 77 77 76 61 54 56 50 47 50 45 49 48 36 37 40 39 38 39 42 43 39
88 93 96 94 100 97 100 98 80 87 94 95 91 96 97 95 92 80 84 88 97 89 96 99 91 93 84 81 60 57 55 54 58 43 43 41 42 48 51 55 60 60 53
96 87 87 90 83 88 89 86 87 83 90 98 96 92 95 99 99 95 92 91 94 97 100 98 81 82 88 99 96 94 81 80 76 48 48 53 60 58 54 58 61 63 58
100 100 97 94 98 93 83 84 93 88 89 83 90 99 99 100 99 99 97 100 98 97 96 97 97 99 96 100 99 100 94 96 95 72 62 63 86 83 70 61 66 63 55
98 98 97 97 96 85 80 80 81 80 82 85 92 95 91 92 91 93 85 94 97 99 100 98 98 89 98 98 100 100 100 98 93 90 90 77 87 87 80 70 65 61 55
99 97 100 94 83 76 75 76 74 74 73 72 76 76 80 81 89 87 91 89 92 88 96 92 99 93 92 97 96 98 89 92 92 91 92 98 99 85 73 67 69 63 54
100 95 91 76 68 65 65 62 59 64 70 67 68 76 73 70 69 73 76 77 81 82 89 87 91 97 100 95 94 97 100 95 94 84 82 78 78 72 71 72 71 61 47
90 100 87 72 68 66 65 64 62 62 63 62 72 77 74 72 73 75 72 74 75 75 78 83 93 97 87 95 99 99 87 90 85 84 83 84 84 83 86 88 71 57 39
99 95 78 63 67 72 65 60 62 67 70 75 77 76 75 74 75 71 60 46 58 65 75 83 95 93 87 90 95 92 85 97 99 97 87 85 84 83 83 78 65 50 38
90 76 70 70 71 72 61 49 48 52 57 65 68 68 67 65 62 53 46 38 47 61 71 78 84 90 89 93 93 94 92 100 99 90 88 86 79 77 76 65 54 41 41
71 72 75 75 70 53 43 40 35 35 35 37 36 35 34 31 30 28 29 35 49 60 67 75 78 82 88 91 97 93 97 100 96 82 69 70 67 66 56 51 40 40 43
55 52 49 46 42 41 40 39 40 38 36 35 34 33 32 33 32 31 31 30 30 36 44 66 82 80 81 85 89 94 85 87 87 61 57 56 51 50 43 38 39 42 44
54 53 52 52 51 49 47 46 45 42 40 36 34 31 30 31 30 27 28 29 32 34 36 43 67 85 85 86 88 87 88 79 55 47 45 45 43 39 41 46 50 50 47
61 64 64 62 60 57 54 50 47 44 39 37 38 37 34 30 29 30 27 27 28 32 34 34 38 44 58 73 83 75 54 50 48 49 47 43 42 41 42 41 45 46 43
74 74 73 71 68 63 58 53 48 44 38 34 33 34 35 36 35 33 32 31 31 37 41 39 35 34 36 40 44 47 47 51 52 47 43 40 38 40 42 41 41 42 40
81 82 80 78 73 67 60 52 46 43 41 38 34 31 29 29 31 32 31 29 39 44 43 41 38 37 40 42 48 56 61 54 49 44 44 44 47 46 43 45 39 37 37
84 84 83 77 68 62 58 56 56 53 49 46 43 40 36 37 36 35 45 43 57 56 53 51 50 55 58 63 68 63 56 51 48 47 50 53 50 48 44 45 50 56 58
87 79 68 65 68 65 62 60 61 60 53 45 41 35 35 37 38 45 54 55 58 66 62 68 69 75 75 70 64 60 56 56 56 56 58 57 53 48 51 54 59 61 69
74 75 75 77 74 66 60 54 48 44 40 38 40 39 32 32 37 46 61 73 71 77 72 76 80 78 69 67 66 63 63 62 62 64 65 64 62 57 51 54 51 64 67
71 67 57 50 47 45 45 45 42 38 36 36 34 32 31 31 35 42 57 81 79 78 83 81 78 74 72 72 70 69 68 66 66 66 72 71 67 60 58 56 56 61 47
55 55 61 59 53 48 45 41 41 42 40 42 43 41 39 36 36 38 54 75 91 90 87 91 88 81 77 77 76 74 74 73 72 75 77 76 72 67 74 62 59 47 21
61 59 46 29 22 20 18 16 15 15 21 40 57 53 50 46 45 52 74 82 94 100 94 87 93 96 91 85 80 78 79 83 82 83 81 79 76 76 86 66 58 25 66
49 34 28 27 22 22 24 25 24 23 22 19 21 47 63 56 58 73 88 92 93 96 94 92 92 95 97 94 88 86 87 87 87 92 83 80 80 82 92 69 43 51 71
37 55 55 33 23 22 22 22 23 23 22 22 23 24 24 62 65 78 100 100 100 97 98 96 89 85 85 98 98 90 91 95 97 90 82 86 89 92 91 70 39 35 51
28 27 26 26 29 32 30 26 25 22 20 18 19 19 21 22 45 69 78 99 100 100 98 94 90 93 94 93 99 98 98 90 85 86 93 93 100 100 93 78 34 24 27

GFSMW_700_rhum_087.txt.gz
RH
76 70 66 77 72 94 98 96 93 90 99 97 91 85 91 74 48 47 50 50 48 55 51 50 53 50 49 45 45 47 50 51 54 51 47 46 43 44 46 35 36 36 37
67 84 71 87 87 92 99 98 99 96 100 97 99 99 97 89 83 49 49 49 51 52 52 54 54 52 59 52 56 58 57 58 60 55 53 53 54 48 48 39 38 39 46
64 78 84 81 86 96 100 98 99 99 100 99 97 100 94 96 92 80 68 67 71 68 69 70 71 70 61 72 82 84 80 74 71 66 73 69 65 79 50 42 43 52 59
67 74 72 72 93 100 100 100 99 98 100 100 100 100 100 99 97 88 76 89 99 89 82 78 82 90 90 88 99 89 100 97 90 87 84 93 81 89 67 50 57 65 68
59 87 78 70 95 99 100 100 100 100 98 99 99 100 100 99 97 100 99 96 90 99 97 98 92 90 87 88 94 100 98 100 98 97 95 98 100 98 90 64 66 55 71
68 71 94 100 91 86 93 99 98 100 100 100 98 99 100 99 100 100 100 98 99 92 96 93 97 98 87 93 97 98 100 97 98 100 99 100 100 100 97 98 94 93 96
86 99 100 100 100 100 99 99 94 99 99 100 95 97 99 99 98 94 92 84 93 95 73 95 100 99 100 96 96 98 99 96 97 97 100 100 98 78 90 97 95 78 77
98 98 100 100 100 100 100 99 98 93 94 97 97 99 98 90 85 88 90 96 92 79 77 91 95 95 98 96 99 98 99 87 80 99 78 78 78 96 98 86 76 74 75
99 97 100 100 98 99 99 97 93 87 85 82 75 82 88 94 90 88 84 81 82 82 82 89 96 96 97 98 97 96 98 90 86 86 86 95 98 98 94 89 83 80 77
96 98 99 100 99 99 98 86 83 80 80 77 73 71 80 83 87 87 89 84 84 85 85 84 85 78 73 76 92 96 96 91 92 100 98 94 95 91 92 86 84 76 73
100 100 100 99 98 99 99 91 74 68 68 72 75 76 80 85 86 90 88 83 83 84 78 70 70 59 55 64 73 90 92 84 92 83 81 86 91 97 91 87 78 59 56
100 99 100 98 99 96 88 68 58 50 44 42 46 50 54 60 66 72 72 70 69 66 64 54 44 45 58 67 72 85 94 90 86 89 90 90 88 85 84 80 66 48 44
94 88 82 70 63 58 54 50 46 44 44 44 41 40 39 38 37 37 36 36 34 33 32 30 31 39 52 66 78 82 88 93 93 91 91 87 86 88 82 82 46 43 44
68 65 62 59 58 55 51 51 52 52 52 50 49 48 46 44 39 34 33 33 32 31 31 32 32 32 38 49 60 75 81 84 89 90 90 90 87 86 89 59 45 40 37
64 61 59 58 57 56 57 58 57 57 56 52 50 47 43 40 39 38 35 35 33 31 30 29 29 29 31 36 45 50 66 82 84 91 92 92 91 90 61 47 44 40 37
64 64 64 62 62 60 59 58 58 57 55 54 53 51 47 43 39 36 34 35 37 38 37 33 32 30 30 36 42 44 45 60 89 92 92 89 82 60 48 46 43 40 41
65 63 64 66 68 66 67 70 69 66 62 58 54 50 46 44 40 37 35 32 30 32 36 39 38 34 37 41 43 46 48 49 58 66 72 68 57 52 53 45 44 42 47
75 80 79 83 82 79 78 71 62 56 52 50 49 48 46 46 46 45 41 37 35 32 30 32 37 40 39 48 52 53 50 48 52 59 60 59 62 59 50 47 46 47 49
85 88 88 86 76 68 63 59 53 49 46 43 42 42 43 44 45 48 49 47 40 34 34 34 37 42 47 56 59 59 57 54 58 65 72 73 64 56 53 52 51 55 55
67 62 61 63 64 63 61 58 51 46 43 40 37 35 34 35 34 32 31 32 35 40 35 32 37 44 54 61 63 64 64 68 78 88 86 72 64 59 57 54 55 58 61
58 61 62 64 67 65 61 60 55 50 50 51 49 47 46 43 42 42 42 39 38 34 36 34 37 49 65 69 77 82 81 84 86 88 82 74 69 66 64 60 61 64 67
63 64 62 64 65 61 59 58 56 55 53 48 38 28 23 21 18 18 23 39 46 46 44 38 36 49 72 83 86 91 95 97 96 93 87 81 79 74 69 66 66 72 73
52 54 59 65 67 65 66 62 62 62 61 59 56 47 29 22 20 20 20 22 34 60 56 50 52 54 94 100 100 100 100 99 100 99 92 93 86 80 75 73 78 80 80
56 64 64 61 55 51 48 46 43 40 38 34 32 30 28 25 21 18 20 22 22 25 63 68 66 81 97 100 99 98 100 100 98 98 96 94 96 90 83 82 85 88 89
52 50 50 47 48 53 52 53 51 48 44 36 27 22 21 23 24 28 28 20 20 21 22 63 99 99 97 100 99 98 98 98 99 100 98 97 94 95 89 91 97 100 96
34 28 20 13 12 10 10 11 11 10 9 8 8 8 9 10 10 9 7 10 23 20 20 25 75 93 100 100 98 98 100 98 100 92 83 89 93 94 100 99 100 100 100

GFSMW_700_rhum_090.txt.gz
RH
88 64 85 69 70 71 72 67 94 84 98 98 99 100 99 63 62 82 94 74 55 41 42 45 46 48 48 49 51 49 47 44 48 50 51 51 49 48 46 46 48 38 35
92 42 73 78 62 68 67 72 94 98 96 99 98 97 99 95 62 62 72 82 91 65 51 49 51 51 50 51 51 50 50 52 59 64 61 59 59 56 52 52 51 43 39
59 45 60 71 66 72 69 85 80 94 95 98 100 99 96 99 96 76 69 76 79 65 56 56 65 63 52 52 53 56 61 59 63 80 80 75 70 74 70 79 61 46 46
62 58 57 76 72 67 67 67 95 95 96 94 100 100 99 98 98 99 72 65 69 80 65 68 72 63 65 68 67 79 81 84 72 91 94 97 96 92 89 84 73 52 54
64 51 59 64 70 60 64 87 90 100 100 95 99 98 99 100 95 99 100 90 77 85 91 94 89 87 82 96 86 90 94 99 98 99 99 98 99 100 99 91 93 74 70
66 70 53 67 69 80 76 75 89 97 98 100 100 99 100 100 100 99 100 99 96 97 99 100 98 87 84 92 98 87 84 95 95 93 98 100 100 100 100 100 100 98 96
99 80 72 73 75 77 70 78 91 98 100 100 98 99 99 100 100 100 100 100 98 100 100 99 96 94 78 67 80 82 80 94 96 99 99 98 100 100 99 82 86 74 84
99 98 100 98 92 92 91 96 100 99 100 100 98 100 100 100 98 100 98 100 91 91 100 76 87 82 80 93 99 96 93 98 99 98 96 99 100 99 85 88 99 96 84
98 99 100 100 100 100 100 100 100 99 100 99 88 92 95 93 100 98 96 89 77 69 76 77 94 90 73 80 100 99 100 98 98 95 90 84 89 94 97 99 99 93 84
98 99 100 100 100 100 100 100 92 92 90 90 88 85 83 88 89 90 97 90 87 87 89 93 99 95 95 82 84 96 98 98 98 90 87 90 93 99 99 100 99 92 86
97 99 100 100 100 99 100 96 87 80 83 88 89 87 86 88 89 84 87 85 83 80 80 85 91 86 78 70 66 78 90 92 98 91 90 99 93 90 94 93 93 93 87
100 100 100 100 100 100 88 66 63 58 55 53 54 57 62 67 73 77 79 81 85 82 78 77 74 70 66 64 61 59 66 78 96 87 87 84 85 87 97 100 89 82 76
99 98 95 94 89 66 60 57 54 52 49 47 46 45 44 42 39 37 37 38 40 41 41 41 42 40 42 48 54 58 59 72 88 92 89 91 93 95 92 88 85 76 76
68 69 68 65 63 60 58 56 54 54 53 52 52 50 48 47 44 41 39 36 34 33 33 34 34 35 36 39 50 52 65 74 84 94 96 97 97 99 92 89 87 89 82
66 64 66 66 66 65 62 63 61 61 60 59 56 53 48 44 42 39 38 37 37 36 34 33 34 34 34 36 37 39 53 66 78 87 92 97 100 99 97 95 94 88 55
67 67 69 69 68 68 68 67 66 62 61 60 56 54 52 51 50 48 46 41 38 36 35 36 38 34 34 36 37 38 40 46 52 64 78 90 93 99 98 93 93 66 51
71 73 71 69 72 74 73 76 72 68 63 60 54 50 48 46 45 44 44 43 41 39 36 32 33 37 39 39 40 42 43 45 48 49 59 78 89 96 100 91 69 56 52
72 73 71 77 82 86 81 75 63 56 52 49 46 45 43 43 44 44 42 41 39 39 41 40 37 33 34 40 44 44 48 48 50 51 57 70 89 88 79 70 61 57 49
91 92 90 86 76 68 62 59 56 54 51 50 48 44 41 39 37 34 33 36 40 44 48 48 42 36 36 43 50 51 50 56 59 59 59 61 69 71 68 68 65 55 53
61 62 61 60 61 62 59 56 54 49 45 43 40 38 37 39 39 41 41 37 35 35 33 35 40 43 37 38 53 66 61 66 68 63 63 64 72 76 73 74 61 58 60
61 58 58 61 59 52 56 61 59 56 56 56 51 48 49 50 50 46 36 28 27 30 40 43 39 38 40 40 51 68 72 81 83 81 79 79 85 85 80 70 65 64 62
46 44 40 40 44 49 46 41 42 47 50 52 58 61 61 58 56 51 38 27 23 21 20 25 49 48 46 44 51 71 92 100 100 99 99 99 99 95 83 73 71 69 67
29 30 30 30 31 30 27 27 32 41 49 49 47 46 46 43 37 35 38 38 27 21 22 22 22 50 59 55 57 79 100 99 100 99 100 99 98 97 91 80 77 74 72
20 21 21 20 17 12 12 17 16 21 18 15 19 20 25 31 37 41 41 40 38 31 22 18 22 22 47 73 69 91 100 100 93 98 98 98 98 100 99 87 81 79 79
14 12 7 4 3 4 4 5 6 8 8 8 9 10 10 9 8 8 7 7 8 11 22 31 23 20 24 70 100 100 100 99 100 98 98 100 99 100 96 90 86 88 84
5 4 4 4 4 4 4 5 7 9 10 11 12 12 12 13 16 15 13 14 14 13 11 10 16 24 21 28 94 98 99 98 100 99 98 98 100 93 100 100 92 88 89

GFSMW_700_rhum_093.txt.gz
RH
16 24 48 29 43 53 63 66 67 70 81 90 84 98 100 97 98 100 98 92 45 36 35 33 39 39 40 46 50 50 50 50 50 47 48 52 51 52 52 50 49 46 42
57 64 62 54 60 61 61 72 69 69 68 85 96 98 97 98 100 99 97 100 79 60 41 40 42 42 44 47 49 49 50 53 54 51 53 55 60 58 63 60 56 50 53
60 55 58 59 47 70 71 72 73 71 66 84 86 100 98 98 99 98 96 96 97 82 82 55 46 47 47 48 49 50 58 63 61 56 67 65 61 70 79 68 70 66 65
64 65 70 58 59 71 79 70 80 79 80 94 100 99 100 99 100 97 100 95 96 99 92 90 83 50 53 52 57 58 58 56 67 72 72 78 85 98 96 95 90 98 80
68 61 59 52 50 65 67 68 64 62 74 94 85 90 99 100 97 100 100 98 97 96 97 98 99 94 82 81 77 74 73 95 87 92 96 96 86 97 100 97 96 96 95
66 61 58 64 54 60 72 74 66 75 72 68 80 99 98 100 100 96 99 100 99 100 99 99 94 98 84 82 98 85 76 81 93 97 98 92 94 88 98 100 100 100 100
64 63 78 68 68 75 83 79 82 91 84 84 94 94 100 100 99 100 100 100 100 99 100 90 86 90 98 99 98 92 84 86 75 71 80 83 82 87 92 100 100 100 99
95 98 99 96 100 100 98 100 100 95 97 99 99 100 96 99 100 99 100 100 100 100 100 100 98 91 98 95 100 99 92 75 68 88 94 90 85 86 98 100 100 100 87
99 100 100 100 99 100 100 100 100 98 100 100 100 99 100 100 100 98 98 99 100 96 96 98 100 100 99 96 98 99 89 80 99 100 100 95 94 100 97 98 97 81 94
99 99 99 100 100 100 100 99 98 100 100 99 100 100 100 98 99 96 100 92 90 98 98 96 96 99 99 100 99 100 99 87 98 100 99 99 99 96 91 85 93 95 99
99 100 100 100 100 100 100 100 100 99 100 100 99 98 96 90 87 92 94 99 99 100 99 99 100 100 99 97 96 98 97 99 99 99 100 99 98 99 100 98 99 100 100
99 99 100 99 99 98 98 96 68 56 54 54 53 54 56 64 72 82 89 94 94 95 93 95 96 96 91 93 87 81 80 78 90 99 99 98 100 94 100 100 99 97 99
100 100 99 99 95 75 71 65 56 52 49 47 48 45 44 43 42 41 39 39 40 42 48 56 61 63 64 66 67 65 66 66 71 81 91 99 97 99 89 90 94 99 100
73 74 72 70 70 67 64 61 59 56 54 52 52 50 50 47 43 41 40 40 40 39 37 34 32 34 36 36 37 40 40 50 61 68 80 95 94 89 86 91 98 99 98
70 69 70 71 71 71 70 67 66 64 63 61 59 57 54 50 49 46 44 42 40 39 38 38 38 35 32 34 34 35 37 41 59 67 74 90 96 94 94 96 97 100 100
74 73 71 71 71 70 69 69 66 64 62 61 59 57 54 53 52 49 47 45 43 43 41 39 37 36 37 36 34 33 34 37 40 47 70 83 98 99 100 100 98 100 100
74 74 76 73 71 68 67 66 63 58 56 52 47 43 43 42 41 40 40 40 42 43 44 44 42 40 36 35 37 39 38 34 35 38 40 56 75 90 99 96 100 95 100
71 72 73 71 72 71 59 55 48 41 42 39 40 40 38 38 38 37 37 35 34 36 36 36 37 38 39 37 34 35 39 42 40 41 44 50 54 82 93 100 100 98 99
69 62 56 51 44 38 38 41 36 32 37 30 29 32 33 31 29 32 32 35 35 35 31 30 35 37 40 46 42 37 34 40 49 48 49 59 93 100 100 100 99 100 87
51 49 48 44 41 39 33 28 27 21 19 17 18 18 20 22 28 32 38 42 44 42 41 37 34 33 35 40 46 46 38 36 50 57 64 69 72 73 73 83 86 85 82
46 43 41 38 36 38 36 32 38 53 57 60 58 54 56 55 52 50 51 50 51 47 39 35 35 37 41 46 48 46 44 43 44 65 75 80 84 84 86 86 87 91 86
30 28 26 26 24 22 19 16 13 14 14 20 26 31 36 36 41 45 48 50 52 53 52 49 30 23 22 29 55 57 51 52 63 71 92 100 100 99 100 100 100 97 86
28 26 25 22 17 13 8 5 5 6 6 6 5 5 6 7 9 12 17 27 40 48 46 43 35 29 22 23 28 72 65 64 91 100 100 100 99 98 98 100 100 96 84
16 14 10 5 4 4 4 4 4 5 6 6 7 8 8 8 8 9 9 9 10 9 12 19 28 40 34 22 21 29 100 95 98 100 99 97 87 100 98 97 100 93 93
8 5 4 3 3 4 5 6 6 7 8 9 10 10 11 12 12 12 13 12 12 12 11 10 9 9 18 30 27 22 36 98 99 99 96 94 97 98 97 98 99 98 98
4 3 4 6 9 12 14 16 15 15 17 18 19 23 18 17 18 18 20 28 26 23 21 18 18 16 13 10 18 23 23 52 97 96 79 97 100 100 98 98 98 98 98

GFSMW_700_rhum_096.txt.gz
RH
21 22 41 26 41 50 38 30 55 62 65 75 91 90 86 97 94 95 96 78 79 84 86 38 20 94 47 41 38 40 46 51 53 52 51 50 47 48 56 58 52 50 47
30 25 18 17 28 27 25 17 32 56 60 71 75 88 93 93 88 98 99 96 90 90 83 48 24 54 71 41 43 43 47 51 52 51 51 50 51 53 54 58 62 64 52
59 45 32 28 25 25 20 43 66 60 73 77 79 75 94 95 100 98 100 100 100 99 82 47 32 52 50 40 43 44 47 50 51 52 55 57 56 59 61 61 74 74 65
56 55 46 42 38 45 35 48 75 75 78 82 77 80 91 94 99 98 100 100 100 98 98 64 44 42 41 43 44 46 50 53 55 60 70 67 62 69 64 82 83 86 90
79 69 56 59 64 64 45 61 74 69 75 78 68 74 81 99 96 98 99 100 100 100 97 99 94 73 57 60 60 54 58 60 63 74 78 88 92 97 90 97 84 88 94
93 84 74 76 65 59 53 66 74 72 73 71 72 79 81 80 82 86 98 100 100 100 100 100 99 100 97 86 92 75 75 71 83 92 94 90 94 98 99 99 97 95 98
78 78 79 77 65 63 62 70 72 77 77 79 82 80 84 76 67 100 97 100 100 100 100 100 100 99 99 99 100 100 97 92 92 94 87 97 78 81 76 79 85 86 84
98 90 76 77 71 83 87 97 76 80 82 84 100 100 97 80 84 89 100 99 98 98 100 100 100 100 100 100 100 100 99 99 94 96 100 98 82 78 82 79 95 95 84
96 88 94 98 81 96 100 99 99 98 99 96 100 100 98 99 100 100 100 100 98 97 99 99 100 100 100 100 100 99 100 100 100 97 96 98 91 89 85 92 99 98 84
97 99 99 100 100 90 100 89 100 100 99 100 100 100 100 99 100 100 99 99 99 100 100 100 99 97 99 100 100 99 100 100 100 98 99 89 99 100 100 100 99 100 100
99 99 99 99 99 100 100 100 100 100 100 100 98 99 100 99 99 100 100 100 99 98 99 98 99 99 99 100 99 100 100 100 100 100 99 98 99 100 99 98 92 98 99
98 99 99 99 99 99 100 98 94 81 64 58 56 54 71 90 90 88 92 97 99 97 98 99 100 99 96 98 99 99 100 99 98 99 100 98 99 100 100 98 98 100 97
99 99 98 97 95 95 87 90 82 64 59 58 56 54 53 50 48 47 44 42 42 43 46 52 58 65 74 81 85 87 90 93 92 91 86 91 100 100 98 100 100 100 99
77 80 81 80 77 74 71 69 68 68 69 66 64 64 61 58 56 55 53 50 48 46 45 43 38 32 34 38 42 47 54 61 65 68 76 80 77 97 98 100 97 100 100
75 76 75 74 73 73 73 69 68 64 59 58 56 55 55 54 52 52 50 48 48 48 47 46 44 42 42 41 39 39 38 36 37 39 49 58 65 71 89 92 100 98 89
74 74 73 74 72 71 68 66 64 60 57 57 53 49 48 47 45 44 44 44 44 46 46 47 47 45 44 42 39 39 39 38 37 35 37 42 54 66 72 93 100 95 92
77 75 74 72 68 66 64 61 53 47 40 35 33 31 28 25 26 26 26 28 31 33 35 38 40 41 44 45 45 43 39 36 38 39 37 37 42 60 69 81 98 92 96
75 74 68 61 52 46 39 33 28 23 20 18 17 19 18 18 16 15 14 15 15 18 20 24 27 30 34 38 40 42 42 40 37 36 39 39 40 44 73 82 97 98 100
61 48 40 35 33 27 23 19 16 16 14 12 13 13 13 12 10 9 8 6 6 7 10 15 17 24 28 30 32 40 44 45 41 39 38 43 43 46 51 94 99 100 99
36 29 25 23 20 17 15 15 13 12 10 8 6 5 5 4 4 4 4 6 10 13 14 23 34 35 36 38 34 35 39 43 50 46 41 48 55 55 68 90 88 89 96
35 33 34 32 28 24 18 14 10 7 5 4 4 4 5 10 15 17 16 14 22 35 47 51 53 54 52 47 39 32 33 45 49 53 53 56 78 88 82 82 92 99 100
26 24 19 15 12 9 5 4 3 3 3 4 4 5 4 4 4 4 4 5 7 10 17 29 37 45 48 50 52 33 25 25 55 55 56 78 100 100 100 99 100 100 98
17 16 13 9 5 4 3 4 5 7 9 10 10 11 10 8 7 6 5 5 5 5 5 6 5 7 19 40 45 43 37 24 23 56 71 93 100 99 99 100 100 100 100
16 12 6 4 4 4 7 10 14 18 19 20 22 22 20 17 14 14 14 12 10 9 9 8 7 7 8 9 22 40 34 29 22 24 85 100 99 98 95 100 99 97 100
7 4 4 5 7 11 14 15 17 18 18 21 27 34 39 35 28 27 24 22 26 33 22 16 14 11 9 10 10 10 23 31 28 29 69 97 90 96 94 96 99 94 100
4 4 6 9 11 12 11 10 8 8 12 17 24 36 52 63 56 46 46 36 39 56 55 46 34 24 19 19 18 16 13 16 23 27 38 93 95 74 99 97 100 98 98

GFSMW_700_rhum_102.txt.gz
RH
48 38 36 40 20 51 86 93 85 81 70 60 54 49 43 58 66 66 64 73 72 68 78 86 93 95 94 88 81 99 100 96 83 67 60 55 55 56 55 54 51 48 46
51 41 47 51 37 28 65 88 84 76 67 60 58 60 60 67 76 64 51 70 74 76 84 88 91 98 97 98 94 91 98 96 80 70 64 60 55 56 54 54 52 49 48
45 42 44 52 45 23 49 58 72 72 64 47 23 18 28 58 73 75 68 68 73 81 92 82 100 97 99 98 99 100 99 100 99 87 60 62 50 59 54 53 53 51 52
43 55 58 54 39 27 23 44 54 61 66 60 49 18 14 44 58 64 65 66 61 70 93 87 98 100 99 99 99 100 98 98 88 66 56 58 56 53 52 54 53 53 56
76 72 75 73 54 42 37 43 44 57 56 52 34 15 34 55 64 65 62 58 65 84 89 91 76 96 98 99 99 100 97 97 99 66 57 58 54 54 55 53 53 56 64
98 96 94 80 66 60 57 56 55 54 57 42 19 22 58 66 72 73 71 69 66 72 84 87 79 73 87 96 100 100 100 99 97 94 97 65 55 55 57 59 58 68 79
88 98 98 89 76 80 70 66 58 45 38 35 35 60 68 67 73 72 69 71 76 81 86 89 91 96 94 99 100 100 100 99 90 80 97 64 61 60 67 74 75 74 87
98 98 91 91 81 80 77 81 74 66 56 51 74 76 73 75 73 70 75 74 88 89 98 92 84 97 100 99 97 100 100 99 96 90 91 65 66 76 91 83 98 98 99
99 93 95 85 83 74 69 72 74 94 98 88 97 92 86 78 83 84 84 99 91 98 98 97 99 95 100 100 99 100 98 100 98 90 66 63 69 83 89 96 99 99 97
99 100 98 98 85 79 71 100 93 100 98 96 97 100 100 100 98 100 100 100 100 100 100 100 100 99 100 100 100 100 100 100 100 99 92 90 98 100 98 99 100 100 100
98 99 99 99 95 96 99 98 93 94 100 100 99 98 100 99 100 100 99 100 100 100 100 99 100 100 100 99 100 100 100 99 100 100 99 98 100 98 99 99 100 99 99
98 99 97 98 99 100 85 83 99 100 99 100 100 99 98 98 98 100 100 98 76 78 90 87 89 97 100 100 100 100 100 99 98 99 100 100 99 98 100 100 99 100 100
98 98 98 98 98 98 99 99 100 99 99 98 96 94 90 80 74 80 66 66 64 56 49 46 46 48 47 48 64 89 98 99 98 100 98 98 99 100 100 100 100 100 99
86 86 89 90 90 94 94 93 95 95 93 89 81 73 67 63 62 58 55 55 53 50 50 51 49 48 49 47 47 47 45 43 51 73 90 92 99 100 100 99 100 99 100
85 87 86 86 86 83 80 78 77 75 72 67 61 55 50 45 40 36 33 32 32 32 32 33 35 37 40 42 43 45 46 46 45 43 43 44 60 87 94 96 94 95 97
88 91 94 91 86 84 80 72 60 49 40 31 25 21 18 16 14 12 11 11 11 11 12 12 12 13 14 17 22 27 34 40 44 44 45 44 43 42 40 44 52 60 70
82 81 80 80 74 58 44 38 32 25 20 17 14 11 9 7 6 5 4 4 4 4 4 4 4 5 5 6 8 10 12 17 26 32 37 42 46 46 42 42 40 40 43
68 65 58 49 42 36 30 25 20 16 12 9 7 5 4 3 3 3 2 2 2 2 2 2 2 2 2 3 3 5 6 8 11 14 22 31 36 43 46 45 42 42 44
45 47 45 42 34 30 24 18 13 9 6 4 3 3 3 3 3 3 3 3 3 3 3 3 3 4 3 3 3 3 3 5 8 12 21 27 31 35 43 48 47 43 41
40 39 34 29 24 19 15 11 7 4 4 3 3 4 4 5 5 4 4 4 3 3 3 3 4 5 6 7 7 6 4 4 4 6 12 25 33 36 38 40 53 51 45
29 27 24 20 17 14 10 6 4 3 3 4 5 5 5 4 4 4 4 5 6 6 6 6 5 6 10 13 14 13 11 8 6 5 4 5 15 36 48 42 40 51 63
24 24 21 18 14 9 6 4 4 4 5 5 5 4 4 5 7 9 11 12 13 12 12 10 9 6 8 16 20 20 15 11 9 7 6 5 9 21 36 50 45 40 58
26 22 20 16 10 5 4 4 4 5 5 5 4 5 7 8 10 13 16 18 18 16 15 14 12 11 17 30 33 27 21 17 14 11 9 7 7 31 45 51 50 37 61
23 20 17 9 5 4 4 5 5 5 5 5 6 6 8 12 16 22 24 24 21 19 20 20 20 18 28 49 47 35 32 34 28 22 16 12 10 15 41 33 28 68 42
22 18 10 5 4 5 6 6 5 5 5 6 7 10 14 20 25 28 29 28 26 26 26 31 36 34 36 62 63 52 48 47 40 34 27 22 17 13 26 32 38 100 90
20 10 5 4 5 6 6 6 6 6 7 9 12 19 25 28 29 29 29 34 35 35 37 49 61 60 71 84 83 75 70 60 56 43 34 29 27 19 16 26 46 96 99

GFSMW_700_rhum_108.txt.gz
RH
34 42 27 22 16 20 18 17 22 27 77 62 52 78 74 71 78 78 81 90 96 98 86 62 56 58 66 60 59 64 69 76 74 88 92 93 98 94 62 69 44 54 57
45 38 39 35 21 28 38 32 35 26 86 99 70 71 80 75 81 88 75 71 68 65 80 76 73 83 70 57 56 70 73 81 82 83 90 93 90 90 94 92 51 60 62
56 52 49 52 46 32 43 47 38 22 63 95 96 96 93 85 78 76 70 69 77 84 76 74 80 68 75 55 68 77 73 86 86 90 97 95 82 84 90 90 95 88 70
83 87 71 74 74 55 40 39 36 34 39 96 97 100 93 88 74 66 70 80 81 82 83 79 75 75 72 57 62 79 79 90 95 92 89 99 99 96 98 100 98 91 82
70 69 74 80 74 70 64 49 45 40 39 90 98 97 97 100 88 76 71 44 42 68 78 79 72 71 67 59 65 76 85 87 90 94 100 100 99 100 99 98 97 99 76
82 73 69 78 73 74 70 55 48 40 65 99 97 99 93 94 74 47 34 26 29 47 57 56 60 59 62 72 78 76 84 89 87 98 100 100 100 98 100 98 94 92 99
88 87 92 94 98 84 75 58 44 52 77 93 98 98 98 85 75 67 53 34 43 59 62 74 81 81 76 76 78 82 82 91 93 91 92 98 99 100 97 100 97 98 96
88 94 98 99 100 97 75 77 73 73 78 95 98 92 85 79 74 65 54 32 61 82 79 83 79 75 72 83 88 89 94 94 89 94 99 98 93 100 100 100 100 100 97
98 93 98 100 100 94 99 86 93 97 85 77 86 88 89 80 71 47 44 59 74 77 77 73 74 81 90 95 93 95 96 92 99 100 98 100 100 99 99 98 100 100 100
86 88 98 100 100 100 99 100 99 92 86 86 87 87 77 65 63 81 97 96 91 99 98 99 97 100 99 98 100 98 100 97 86 99 100 99 98 99 100 100 99 100 100
89 93 97 99 100 100 99 99 100 96 93 96 93 100 100 100 100 98 97 100 100 100 100 100 100 100 99 100 100 100 100 100 99 100 99 99 100 100 100 100 100 99 100
85 94 97 99 99 99 100 98 93 100 99 93 91 99 100 100 99 100 100 100 100 100 99 99 100 99 99 97 90 99 99 100 100 99 99 99 99 99 100 100 98 100 98
89 94 95 97 97 98 98 99 100 99 99 98 98 98 100 98 98 98 98 95 86 94 96 94 83 73 63 60 58 53 56 49 53 71 90 97 99 100 100 100 100 100 100
77 82 86 87 82 82 84 85 87 86 83 90 96 90 78 70 46 36 34 30 28 26 25 24 21 20 18 18 18 22 27 32 38 42 44 43 44 46 49 77 100 99 100
72 75 79 77 75 70 63 51 46 42 39 34 29 23 17 14 12 11 10 8 7 6 6 5 5 4 4 4 4 4 5 7 9 13 19 29 39 43 45 47 46 55 80
68 69 67 61 54 43 37 33 30 27 22 17 14 10 8 6 5 4 3 3 3 3 3 3 3 3 2 2 2 2 2 2 2 3 3 6 9 16 28 41 46 49 49
69 65 55 46 40 36 32 29 23 19 15 12 9 6 4 3 3 3 3 3 3 3 3 3 3 3 3 2 2 2 2 2 2 2 2 3 3 3 5 10 20 32 43
61 55 46 42 38 34 31 26 21 17 12 7 5 4 3 3 4 4 3 3 3 2 2 2 2 2 2 2 2 2 3 3 3 3 3 3 3 3 3 3 3 6 16
45 41 39 38 36 36 32 27 21 15 9 5 4 4 4 4 4 3 3 3 3 3 3 3 3 3 3 3 3 3 4 4 4 4 5 5 5 5 5 4 3 4 3
34 34 34 33 33 32 29 23 18 11 6 4 4 4 4 4 4 4 4 4 4 4 4 4 5 6 9 12 13 13 12 12 11 11 11 10 10 10 8 7 6 5 5
38 37 37 37 38 36 29 22 16 7 5 5 5 4 4 4 4 4 5 5 5 5 6 8 13 16 16 16 15 14 13 13 13 13 13 13 12 11 11 10 9 8 8
41 43 44 41 36 33 27 22 11 5 5 5 5 4 5 5 5 6 7 7 8 13 18 21 22 22 21 21 22 22 23 23 22 22 21 20 19 17 15 12 12 12 12
49 49 47 44 41 36 28 16 6 5 5 5 6 6 6 6 7 8 8 10 16 22 26 27 25 23 23 25 28 31 31 31 29 28 31 35 32 32 29 26 22 20 19
63 58 55 54 46 38 23 6 6 6 7 7 6 7 8 8 9 10 12 23 30 31 31 30 30 30 30 31 31 34 37 39 40 44 47 49 45 50 50 39 29 24 20
63 62 63 59 47 30 8 6 8 8 8 7 8 9 9 10 11 12 23 33 35 34 34 33 33 35 38 44 47 48 50 52 48 53 58 62 61 57 55 45 34 32 29
64 64 57 47 33 10 6 8 9 9 8 8 9 10 11 11 13 19 34 39 37 36 37 38 39 44 52 58 62 64 66 69 69 70 70 83 71 72 73 66 47 42 41

GFSMW_700_rhum_111.txt.gz
RH
35 30 27 28 26 26 30 31 22 14 12 16 19 22 16 50 99 89 88 90 99 83 77 81 94 99 88 71 80 78 74 71 66 68 75 81 83 71 84 98 90 93 86
46 38 42 40 38 38 42 54 33 23 28 22 22 26 29 49 90 98 91 98 89 83 69 73 70 88 90 74 64 79 73 60 74 71 76 86 83 84 78 95 90 88 78
51 58 51 48 52 65 67 72 51 37 49 49 43 33 70 77 81 99 95 94 100 84 69 58 57 71 74 51 71 52 71 71 79 76 83 89 80 85 86 85 86 81 89
62 74 61 54 50 68 56 69 63 42 42 36 35 36 82 76 78 88 90 95 98 73 62 74 85 85 87 85 85 81 65 72 81 86 86 88 98 97 92 94 84 86 82
71 70 66 60 62 69 62 62 71 69 45 46 37 53 85 87 86 90 98 100 86 83 86 85 88 90 88 81 79 79 68 68 83 91 91 85 84 90 97 98 98 92 88
72 77 78 77 70 76 75 65 57 52 47 68 65 84 97 96 93 99 100 97 85 82 86 63 45 58 76 80 76 76 77 74 79 86 91 96 87 82 94 100 98 98 98
77 79 81 71 71 92 84 74 69 50 50 62 78 88 100 98 99 98 98 95 76 49 37 42 51 60 65 70 73 70 68 75 72 75 87 88 89 88 92 92 90 99 91
85 80 74 74 78 80 94 85 99 91 87 88 91 98 98 96 95 98 93 74 72 67 56 53 79 84 77 89 87 85 78 77 81 86 92 90 82 84 83 96 92 97 90
77 86 83 82 98 100 98 97 91 95 98 98 97 96 97 96 95 86 71 67 58 48 39 40 72 79 77 86 87 82 84 86 91 90 93 92 99 87 94 98 100 100 99
70 78 80 86 97 100 94 100 98 90 90 83 74 74 88 88 75 65 66 75 67 73 92 89 79 98 90 87 100 97 92 100 99 98 99 90 91 100 99 99 98 99 100
61 69 76 83 96 99 100 100 99 99 98 98 98 93 100 98 100 99 98 100 98 100 100 100 100 100 100 100 100 99 98 100 94 100 100 100 100 100 99 100 98 100 100
58 71 75 80 88 98 98 100 92 95 100 97 91 95 86 95 99 100 100 100 97 98 94 97 97 98 99 94 98 100 100 100 100 100 100 99 99 100 100 99 99 100 100
57 60 65 72 83 89 98 99 99 99 98 100 100 100 99 100 100 100 100 100 98 95 85 78 82 93 99 94 79 88 76 71 70 56 71 68 64 86 97 99 100 99 100
62 64 68 69 71 72 66 58 49 52 56 56 54 63 47 42 39 40 36 20 19 20 18 20 16 17 16 15 13 12 12 13 14 17 21 26 33 40 45 47 52 84 93
61 65 68 70 68 66 56 46 43 38 33 29 25 21 18 14 11 9 7 5 4 4 3 3 3 3 3 3 3 3 3 3 3 3 3 4 5 8 10 16 27 41 46
60 61 62 61 57 55 49 43 37 31 26 21 17 12 8 6 4 3 3 3 3 4 3 3 3 3 3 2 2 2 2 2 2 2 2 2 2 3 3 3 4 7 13
64 64 65 59 49 43 38 31 27 23 20 16 12 8 5 4 3 3 4 3 3 3 3 3 3 3 3 3 3 3 3 3 3 3 3 3 3 3 2 2 3 3 3
70 68 67 58 49 44 40 36 32 26 20 15 10 6 4 4 4 4 4 4 4 4 4 4 4 4 4 4 3 3 4 4 5 6 6 6 7 7 6 5 4 3 3
65 67 64 54 49 44 41 37 33 29 24 18 8 5 5 5 5 4 5 4 4 4 4 4 4 4 4 4 4 6 8 9 9 9 8 8 7 8 10 9 9 9 8
39 40 42 45 47 45 44 41 39 34 27 16 6 5 5 5 5 5 5 5 5 5 5 5 5 5 7 9 12 14 13 11 9 9 9 9 8 7 7 7 7 7 7
39 39 38 39 40 40 40 40 40 32 24 11 5 6 6 6 6 6 6 6 6 6 7 7 9 14 18 18 17 14 13 12 11 11 11 13 14 15 14 13 12 11 11
49 46 46 46 46 45 46 45 40 32 19 6 6 6 6 6 6 6 6 7 8 8 10 14 21 24 22 20 18 18 19 21 22 21 22 22 23 23 23 22 21 19 17
65 60 56 54 50 49 49 47 38 27 8 6 6 7 7 7 7 8 8 9 9 10 19 26 24 17 15 17 20 21 21 22 27 32 33 35 34 33 29 27 26 24 22
69 70 69 62 56 56 55 46 32 10 6 7 8 8 7 8 9 8 10 11 14 26 31 25 19 23 29 33 35 34 32 30 37 46 49 46 49 51 51 44 46 45 44
65 71 70 65 64 61 48 35 10 6 8 10 9 8 9 10 10 11 12 14 29 35 28 26 32 37 42 49 51 51 44 38 45 57 56 59 64 63 62 58 59 59 57
70 73 68 68 65 50 33 7 6 10 20 22 13 10 10 11 11 11 12 22 37 34 35 38 44 54 59 62 62 61 55 50 61 70 68 70 73 72 65 62 62 63 63

GFSMW_700_rhum_114.txt.gz
RH
36 44 44 44 33 27 29 28 25 28 34 32 30 20 14 16 17 24 25 43 76 96 99 90 80 87 89 98 99 97 92 87 96 94 88 80 75 78 82 84 81 77 89
52 52 50 40 39 37 35 34 35 42 44 49 46 28 20 15 15 18 35 54 86 98 100 90 91 90 81 92 82 82 94 78 77 92 79 75 68 76 80 84 78 80 80
48 51 46 40 36 38 34 40 46 46 44 54 40 40 40 26 28 23 25 44 84 92 68 99 92 73 69 49 82 88 82 78 82 86 85 78 69 71 80 88 88 87 89
49 50 46 48 44 43 50 54 54 49 59 63 48 35 37 43 42 39 44 40 77 80 85 100 84 74 69 54 76 88 84 92 78 83 83 75 73 90 95 87 82 83 83
56 56 54 51 50 47 58 63 48 45 60 72 67 65 46 47 50 63 62 67 71 92 92 99 77 70 55 53 66 77 82 84 86 85 92 79 85 88 96 82 76 83 72
53 65 62 60 60 54 58 75 63 47 42 49 59 76 74 82 73 87 84 85 98 83 98 91 88 80 83 82 84 86 91 87 86 84 85 89 86 83 82 86 81 80 74
46 60 70 63 65 57 66 74 70 80 65 65 85 88 78 83 91 95 99 85 94 99 99 100 95 87 73 34 32 44 55 71 75 77 80 78 82 80 77 82 79 84 78
46 58 75 69 71 64 59 71 99 79 99 98 96 93 87 88 99 100 88 87 99 97 95 79 57 44 41 39 45 54 64 78 83 82 80 77 78 81 97 91 89 92 76
48 55 70 78 86 81 79 85 92 98 97 100 100 94 96 97 98 84 86 97 98 83 74 65 61 56 50 46 48 60 76 83 81 80 95 88 90 92 95 98 92 100 100
43 56 62 73 78 84 90 95 98 87 100 100 98 100 97 99 94 98 98 98 96 77 64 56 48 46 88 81 84 93 94 74 100 84 99 100 94 89 80 89 92 100 100
43 40 52 68 76 77 92 99 99 99 99 100 99 98 99 99 97 99 100 100 100 94 91 88 83 94 94 99 99 99 99 100 98 98 100 94 100 98 100 100 100 100 100
49 48 47 48 56 77 87 93 97 99 100 99 100 100 100 100 99 100 99 96 98 98 96 90 90 88 98 90 90 89 99 98 99 100 100 100 100 100 100 100 100 100 100
52 53 54 53 51 56 68 78 79 81 86 84 75 83 93 87 83 88 91 92 91 91 89 96 81 55 44 49 51 78 92 84 43 46 73 92 97 97 95 82 94 85 96
52 55 57 59 57 58 60 55 47 43 40 38 33 28 24 21 17 15 14 13 10 9 9 9 9 9 8 8 6 6 8 10 5 4 4 5 7 10 15 17 23 33 42
52 57 59 66 66 65 59 54 44 40 36 32 26 20 16 12 8 6 4 4 3 3 3 3 3 3 3 3 3 3 3 3 3 3 3 3 3 3 3 3 3 3 4
53 62 68 71 76 71 64 55 50 42 36 31 25 20 15 9 5 4 4 3 4 4 3 3 3 3 3 3 3 3 3 3 3 3 3 3 3 3 3 3 3 2 2
46 51 61 63 61 59 55 48 45 39 34 29 24 20 14 8 5 4 4 4 4 4 4 4 4 4 4 4 4 4 4 4 4 4 4 5 6 6 6 7 7 5 4
54 56 56 54 51 50 47 44 39 33 30 27 23 20 16 9 5 4 4 4 4 4 4 4 5 5 5 5 5 4 5 7 9 10 11 11 10 10 10 9 9 9 9
37 38 45 46 45 45 40 38 35 35 33 33 28 24 16 7 5 4 4 5 5 5 5 5 5 5 6 6 6 9 12 12 11 9 8 8 7 6 6 6 6 6 7
35 33 33 35 36 36 39 41 39 38 36 33 31 24 13 6 5 5 6 6 6 6 6 6 6 6 6 8 11 13 12 10 8 8 8 10 11 12 9 8 9 8 7
42 46 46 46 43 44 47 46 46 44 45 40 32 20 7 6 6 7 7 7 7 7 7 7 8 9 16 19 16 12 10 12 14 15 14 14 13 13 14 16 18 20 22
48 51 54 59 56 55 55 53 49 50 48 40 26 8 6 7 9 7 8 8 8 8 8 9 13 22 21 16 18 26 30 33 33 30 29 27 24 22 24 29 31 31 30
46 53 62 65 65 63 62 55 53 54 44 30 9 6 9 10 9 9 8 8 9 10 10 15 25 21 22 32 37 40 40 40 41 43 44 40 35 30 35 42 46 44 40
42 48 55 61 63 62 58 57 56 43 29 7 7 20 34 22 11 10 10 10 11 12 15 28 25 27 33 36 33 34 32 31 36 47 51 47 41 48 57 53 49 50 50
47 52 56 61 64 61 60 57 41 20 6 14 41 36 19 11 11 11 11 11 13 14 28 32 30 32 36 37 39 42 37 28 34 45 51 46 45 52 58 59 61 60 55
55 58 61 65 62 64 62 38 10 9 41 47 24 18 11 14 21 13 12 13 14 20 38 40 36 45 46 45 51 51 37 31 45 46 46 45 51 59 64 64 65 70 69

GFSMW_700_rhum_117.txt.gz
RH
41 37 36 32 35 44 36 30 28 27 27 28 28 29 30 31 29 18 15 16 50 47 33 45 71 81 82 85 96 88 80 88 82 83 97 97 96 96 98 96 85 78 82
33 30 32 33 41 41 35 32 28 28 32 32 34 36 39 43 45 31 17 16 18 52 50 45 56 74 80 88 93 100 99 96 99 97 96 98 96 92 90 88 82 79 89
32 30 36 41 45 39 40 34 34 37 39 35 28 39 51 43 40 38 32 20 17 31 57 59 68 70 80 81 97 99 93 77 77 83 84 90 86 86 88 89 81 86 84
30 28 36 44 48 46 45 34 34 44 38 22 21 44 62 45 33 33 34 33 24 23 45 60 92 98 99 93 98 95 72 81 78 86 83 86 94 91 91 91 84 81 94
24 22 34 47 51 47 40 31 46 48 48 36 34 42 54 63 70 61 53 52 36 41 46 54 91 100 100 100 98 98 73 63 80 82 78 88 96 100 98 100 98 95 91
20 21 35 48 54 49 40 33 48 58 69 79 79 69 70 73 73 89 90 73 63 88 81 66 81 83 98 97 98 100 94 70 82 88 90 91 98 98 99 99 95 89 80
20 20 38 53 57 54 48 37 46 67 74 77 98 98 98 99 84 72 98 95 83 89 71 90 90 99 100 99 100 99 92 82 72 72 80 88 90 91 91 91 81 80 77
23 20 29 50 59 56 58 51 52 60 85 98 98 94 100 81 99 98 99 97 79 82 91 70 91 99 99 99 99 86 39 29 36 43 56 63 67 75 75 79 82 78 83
27 26 26 34 56 61 58 55 68 96 91 100 99 98 97 99 94 99 99 100 89 92 96 99 99 98 88 78 57 53 49 44 41 56 80 97 96 93 90 98 99 100 96
34 32 31 32 34 49 61 67 84 94 95 99 99 99 100 100 99 99 100 100 100 84 96 100 90 100 93 64 62 76 71 62 52 72 93 86 100 98 100 97 96 99 100
37 39 40 39 37 36 43 72 90 98 100 100 100 98 100 99 100 99 99 99 92 98 99 99 100 100 96 82 84 96 97 99 97 97 91 99 100 92 100 100 95 98 99
42 43 43 46 48 46 48 56 65 70 75 78 75 69 73 88 90 92 95 97 98 96 96 98 98 97 97 97 94 83 87 89 94 94 87 96 99 99 100 99 92 100 98
48 49 48 46 51 53 50 48 48 43 39 35 31 27 25 25 22 19 17 15 16 15 14 14 24 31 60 81 70 38 27 27 26 39 66 86 50 33 45 82 97 99 99
40 42 45 45 44 46 47 46 44 40 34 30 27 23 20 16 13 10 6 5 4 4 4 4 3 4 3 4 3 3 3 3 4 4 5 7 20 4 3 3 4 5 7
37 43 48 50 46 44 50 50 45 36 32 30 29 26 22 18 14 9 6 5 4 4 4 4 4 4 3 3 3 3 3 3 3 3 3 3 3 3 3 3 3 3 3
36 45 52 52 54 57 63 65 55 45 38 34 34 32 27 23 19 12 7 5 4 4 4 4 4 4 4 4 4 4 4 4 4 4 4 4 4 4 4 4 5 4 4
34 44 46 44 49 59 62 65 57 48 45 42 39 35 31 25 21 14 8 5 4 4 5 5 5 5 5 5 5 5 5 5 5 5 6 8 9 9 9 9 10 10 10
35 38 40 38 45 51 54 60 56 52 50 47 44 39 35 29 23 14 7 5 5 6 6 6 6 6 6 6 6 6 7 8 10 11 11 10 10 9 8 8 7 7 7
47 50 48 36 37 38 41 44 47 47 48 48 45 42 37 30 22 10 6 6 7 7 7 7 7 7 7 7 8 10 13 13 12 9 8 8 8 10 10 9 8 7 8
37 36 36 40 45 47 46 46 44 46 49 47 44 40 37 29 14 6 7 9 8 8 9 8 8 8 8 9 11 12 10 10 11 17 22 25 25 22 20 20 18 14 12
38 42 42 44 47 51 56 55 52 52 52 46 46 45 35 14 6 10 14 17 15 11 9 8 9 10 12 16 17 16 20 25 22 21 19 18 20 22 25 29 28 25 23
31 34 40 45 48 55 63 63 60 59 52 53 50 36 12 7 24 42 40 24 13 11 10 10 13 14 23 23 25 32 32 31 32 34 29 21 19 23 34 40 40 38 40
31 42 39 40 47 57 62 60 58 56 57 48 32 8 15 46 48 34 17 13 16 13 13 15 13 22 27 29 32 35 37 43 46 46 36 20 19 26 37 45 43 40 46
24 44 44 42 47 52 56 58 56 58 48 24 8 39 52 40 23 17 15 30 21 14 13 13 14 27 28 32 38 40 41 50 54 46 25 23 28 35 38 36 37 43 51
25 40 44 46 52 58 63 58 59 48 13 27 49 44 33 22 15 15 20 15 13 12 13 14 22 28 28 36 42 47 54 57 50 36 24 29 34 33 36 38 42 44 49
26 39 46 52 58 62 61 64 52 12 42 45 42 37 28 24 20 16 16 15 12 14 15 16 32 31 34 46 54 59 61 56 54 35 30 30 33 36 44 49 51 56 60

GFSMW_700_rhum_120.txt.gz
RH
38 37 32 28 28 30 32 37 36 33 30 25 24 26 28 31 35 39 41 37 29 19 18 21 23 15 35 58 73 88 81 69 84 88 79 73 86 92 94 100 98 98 100
40 37 29 19 21 29 36 40 38 37 32 28 29 31 21 18 22 36 46 49 45 32 20 17 33 28 26 50 67 77 87 92 93 93 87 97 82 82 96 96 100 98 97
39 37 28 16 16 27 39 43 42 35 28 37 39 24 26 26 39 58 47 36 38 40 31 19 32 61 49 52 61 76 78 86 100 98 100 91 73 74 84 86 97 96 98
39 26 17 14 14 32 40 42 40 27 33 42 39 44 49 45 38 46 62 62 51 37 33 31 20 32 62 55 58 79 90 99 100 96 99 82 75 67 76 81 86 95 97
19 18 15 13 18 38 42 41 39 30 37 48 46 58 61 66 67 60 72 80 66 55 54 34 27 23 60 75 75 98 100 97 99 97 91 90 84 75 88 90 95 100 98
16 17 16 12 29 46 49 46 41 34 44 46 48 52 68 59 74 80 82 85 80 87 98 82 67 42 48 68 96 99 99 100 94 97 98 96 92 92 95 84 87 99 97
18 19 17 15 21 47 48 46 49 40 48 48 53 46 61 72 70 90 98 98 98 100 99 92 88 77 62 55 68 64 99 99 100 99 100 97 95 88 89 92 94 90 88
23 19 20 18 16 32 49 50 49 44 48 45 54 57 66 65 73 93 98 98 99 99 100 85 98 99 83 74 64 83 97 99 99 99 99 89 65 54 54 63 72 74 74
31 21 23 22 19 17 18 28 48 52 55 56 55 65 63 71 72 83 82 80 98 99 92 100 95 98 94 92 96 89 97 99 95 63 47 41 39 40 65 67 76 96 90
31 31 26 29 26 24 20 17 22 48 55 52 41 50 62 66 75 80 89 94 86 91 98 99 97 100 98 81 91 93 94 84 80 76 73 68 55 68 76 98 99 99 93
42 39 31 33 36 34 31 22 18 18 20 22 22 22 23 24 23 37 30 25 37 50 64 79 83 88 94 100 99 99 98 90 100 97 100 97 74 97 88 98 99 98 97
46 48 46 40 40 43 40 36 27 25 24 23 24 23 21 19 16 14 11 9 8 7 6 7 8 11 47 73 88 92 90 89 84 84 83 85 90 95 93 83 93 100 94
44 47 41 47 44 47 47 44 37 33 32 32 29 26 24 21 18 14 11 8 6 5 4 4 3 3 3 4 4 5 6 8 18 16 14 18 21 33 55 81 84 46 22
33 36 36 53 49 49 56 53 46 39 36 38 35 32 30 26 24 21 16 11 8 6 5 4 4 4 4 4 4 3 3 3 3 3 3 3 3 3 4 4 8 21 10
34 37 40 47 52 49 55 61 56 53 43 40 39 38 35 32 29 25 21 17 12 8 5 4 4 4 4 4 4 4 4 4 4 4 4 4 4 4 4 4 4 3 3
29 25 25 37 46 48 53 56 55 54 46 44 43 40 38 36 33 28 24 18 12 8 5 4 5 6 6 5 5 5 6 6 5 5 5 5 5 5 5 6 6 5 6
33 31 28 32 39 43 45 45 46 46 48 47 44 42 39 37 36 32 26 19 12 7 5 6 8 8 7 7 8 7 7 7 7 7 8 10 10 10 10 9 9 9 8
33 37 33 39 41 39 36 39 38 40 43 45 46 45 45 45 42 36 24 12 7 6 9 10 9 11 16 14 11 9 8 8 8 10 11 11 10 9 9 8 8 8 8
38 37 37 38 37 35 36 45 49 49 48 49 49 51 50 50 45 29 11 6 10 12 12 14 14 12 11 10 9 9 9 13 15 13 13 16 20 23 22 20 16 14 16
27 24 27 35 38 40 46 53 55 57 57 56 59 58 55 50 34 12 7 16 28 32 26 17 14 12 10 11 14 15 17 17 17 23 23 22 24 26 21 18 16 12 13
21 21 20 27 36 46 51 54 58 66 67 68 64 58 54 37 11 9 34 46 38 19 16 22 19 17 20 18 15 18 18 21 24 25 34 38 40 40 32 20 14 16 16
23 22 16 23 32 36 42 50 60 69 70 66 59 56 36 9 18 45 47 29 20 15 31 29 20 18 13 13 18 24 27 30 33 36 38 45 46 35 22 16 16 20 28
26 23 16 20 36 38 40 48 61 64 63 60 59 37 9 34 48 40 26 18 15 19 18 16 15 12 13 17 26 28 31 38 40 46 53 52 42 37 21 19 24 30 30
27 23 18 21 39 46 47 52 57 63 60 60 43 14 45 43 38 28 22 22 18 17 18 13 12 14 14 27 30 32 41 49 55 59 58 55 49 30 26 27 28 30 32
23 21 18 25 41 50 52 57 62 61 59 53 17 44 42 40 36 32 24 18 21 18 12 12 14 13 15 30 31 39 48 56 59 57 52 32 24 24 27 34 40 47 53
20 18 18 29 41 49 57 61 62 62 63 18 43 44 42 40 37 34 22 23 21 13 13 15 15 12 22 29 38 51 57 63 62 50 32 28 30 32 37 41 47 56 62

GFSMW_700_rhum_123.txt.gz
RH
30 35 36 34 30 22 12 10 14 26 28 26 22 22 23 25 25 19 20 23 20 19 21 37 42 25 21 24 20 34 77 80 74 87 94 96 92 83 80 83 82 95 86
36 36 36 31 22 14 10 8 17 28 27 23 19 22 24 24 23 25 30 29 30 45 42 36 43 46 27 22 26 22 50 76 77 86 90 84 68 69 87 76 90 76 74
36 34 22 13 11 10 8 11 27 29 27 21 20 29 32 32 38 36 38 38 36 38 45 45 34 36 40 23 38 42 32 61 74 82 99 98 88 91 87 79 80 77 83
29 17 12 10 10 8 7 24 33 32 30 23 23 29 32 32 34 38 44 50 41 46 60 45 45 38 35 32 27 70 42 42 56 73 83 99 94 98 96 83 73 70 72
24 15 11 10 10 8 9 31 36 34 37 35 35 35 36 37 42 46 48 51 57 59 52 63 79 66 48 32 21 36 64 58 57 58 99 91 79 98 98 92 80 85 73
26 18 12 12 11 10 10 30 41 40 44 39 42 41 45 44 45 56 63 71 72 65 70 63 69 95 89 86 36 29 58 73 70 66 82 89 86 90 100 95 83 90 94
32 29 22 13 14 14 14 22 42 42 43 43 48 44 49 55 56 54 63 72 87 94 99 96 94 95 100 100 98 72 53 59 84 91 96 99 100 98 99 100 96 89 82
41 30 24 18 17 19 18 14 12 18 42 51 53 57 58 59 62 54 59 66 71 87 88 85 91 97 96 99 100 100 100 73 44 71 76 95 98 99 99 99 100 90 82
33 28 25 25 21 22 23 20 14 12 28 49 46 33 20 26 36 52 62 61 65 64 72 81 84 86 93 98 99 100 100 98 83 84 84 94 97 98 99 93 72 54 53
29 28 31 36 32 30 29 28 25 17 14 13 13 13 13 13 12 12 11 12 11 10 8 11 22 43 76 86 89 96 98 99 99 98 89 98 98 96 84 62 50 48 56
35 37 37 36 39 38 34 34 35 29 20 18 18 17 16 14 14 14 13 11 9 7 5 5 4 4 6 12 48 86 91 88 87 87 97 100 98 100 100 100 82 87 93
36 35 35 36 39 44 44 40 39 38 32 24 22 22 22 21 20 19 18 17 15 11 8 6 5 4 4 4 4 4 5 9 16 47 75 67 53 59 65 75 99 94 98
28 29 29 33 37 43 49 46 41 41 41 35 28 27 28 26 25 23 22 21 20 18 14 9 6 4 4 4 4 3 4 4 4 4 4 4 4 4 5 8 9 19 34
24 24 22 27 32 38 46 50 46 46 48 46 40 34 31 29 29 28 27 25 22 19 16 11 7 5 4 4 4 4 4 4 4 4 4 4 4 4 4 4 4 3 3
21 25 30 29 26 29 37 51 53 53 54 50 49 42 38 36 34 32 30 28 24 21 17 12 8 6 6 7 8 7 6 6 6 6 6 6 6 5 5 5 5 5 4
23 22 22 32 27 27 35 47 48 54 47 48 47 43 41 41 39 37 34 31 27 22 15 8 7 9 10 9 9 12 15 14 10 9 8 8 9 9 9 9 9 9 8
22 18 17 31 25 29 38 41 43 38 36 34 38 39 40 42 42 41 39 36 26 14 7 9 14 17 21 25 25 22 17 13 11 10 9 9 10 10 10 9 9 8 8
21 20 27 29 23 27 33 45 44 38 36 42 45 46 46 48 49 46 43 32 13 7 15 31 42 40 33 27 23 23 19 17 18 18 17 15 13 13 14 15 15 14 14
35 36 32 21 22 25 32 34 37 39 45 50 55 55 55 57 51 49 37 16 8 28 47 44 30 25 28 31 32 32 30 28 24 19 18 20 23 23 22 24 26 26 23
38 35 26 22 22 21 30 41 41 44 48 58 61 62 64 58 55 43 18 9 39 49 40 30 20 33 30 24 24 16 11 11 15 19 26 28 29 39 41 43 41 36 27
39 34 23 23 24 17 23 33 44 50 63 59 66 65 62 57 49 22 12 46 48 36 26 20 21 21 19 18 13 12 12 16 21 26 28 34 35 36 44 46 40 37 32
42 40 26 27 27 20 20 35 38 51 51 63 66 67 61 56 27 19 45 42 36 29 27 24 21 21 16 12 13 13 17 26 26 29 31 36 45 51 51 48 44 31 20
40 38 29 29 26 23 21 39 47 46 56 60 66 65 62 42 19 43 39 38 34 31 23 22 25 13 12 14 14 15 28 30 33 41 51 56 57 52 37 20 19 19 20
42 37 32 28 25 25 24 37 52 52 58 62 70 67 63 19 42 40 40 38 35 26 26 28 17 12 14 15 14 27 32 37 50 56 59 57 41 21 19 21 24 26 28
33 29 25 25 24 24 26 40 58 59 65 70 67 66 43 29 43 40 41 40 35 26 24 23 14 14 15 14 16 30 32 44 51 57 55 32 21 22 25 28 31 34 38
24 25 27 27 26 24 37 53 60 68 74 82 78 66 22 42 44 42 42 41 36 26 24 21 13 14 16 13 21 32 38 50 59 58 44 24 22 25 26 28 29 30 34

GFSMW_700_rhum_129.txt.gz
RH
12 10 10 13 23 25 21 14 7 4 4 5 18 25 21 20 15 15 18 19 19 19 20 23 27 30 34 34 32 31 30 30 34 34 29 30 28 24 43 85 88 78 77
12 11 15 26 27 23 18 9 5 4 4 6 19 22 24 22 20 20 24 19 18 21 28 35 36 36 38 40 39 45 41 41 42 40 54 49 40 33 31 86 99 95 100
12 18 25 27 27 24 16 10 8 5 5 7 20 25 22 22 24 29 30 26 27 25 30 34 38 42 43 45 48 53 55 52 50 43 58 69 75 54 41 70 98 98 99
14 20 28 31 29 22 17 15 8 6 6 6 15 18 14 22 29 34 36 38 38 33 32 37 39 40 42 42 45 49 56 69 69 58 64 72 93 82 67 57 75 94 99
24 31 36 35 29 22 17 10 8 7 7 6 6 6 11 17 30 38 39 31 39 43 44 45 45 41 38 45 56 64 63 79 77 91 72 74 97 99 71 56 53 68 78
31 35 38 34 21 16 12 11 10 10 9 8 7 7 11 25 34 29 13 17 32 42 46 48 37 16 13 12 20 63 76 86 98 80 86 77 81 98 81 60 50 50 74
31 35 32 19 15 17 16 16 14 12 12 12 10 10 15 20 16 10 10 10 10 12 15 12 7 5 4 4 4 14 69 77 81 99 100 100 95 91 96 96 72 59 70
20 21 19 18 19 19 19 18 20 20 18 18 16 12 11 11 11 11 11 11 11 10 9 8 9 8 7 6 4 4 10 77 96 93 92 99 100 100 98 89 82 75 77
16 18 20 23 22 22 21 24 26 27 25 22 22 19 15 14 14 13 14 15 16 17 18 18 18 18 18 15 9 5 3 5 63 99 99 99 99 100 97 93 91 87 78
22 26 28 31 30 28 25 23 26 30 28 30 28 27 25 19 16 16 16 18 19 19 19 18 18 16 15 15 14 9 5 3 3 7 41 78 91 93 94 93 91 95 96
35 40 40 42 43 36 34 25 24 25 26 30 30 29 28 28 25 21 19 19 20 20 20 20 19 17 16 14 13 10 7 4 4 4 4 4 4 5 17 51 86 94 90
28 30 52 54 47 35 28 19 20 21 25 28 34 35 34 35 33 29 26 24 24 24 22 21 21 20 18 15 13 10 8 8 9 8 7 6 5 4 4 4 4 4 5
22 22 26 26 24 28 23 30 30 29 32 32 37 44 46 48 44 41 35 30 28 26 27 28 26 23 18 12 10 12 14 16 16 18 20 20 16 12 9 8 7 7 6
22 21 19 17 18 21 28 21 25 32 31 34 38 47 52 48 44 37 34 33 32 32 33 32 30 21 12 12 22 32 35 37 37 36 36 34 31 26 22 17 14 13 13
23 22 18 18 20 23 23 22 20 32 28 28 32 44 51 46 48 42 41 41 38 38 39 36 27 13 12 30 38 38 34 34 34 34 34 34 34 33 30 27 24 20 16
24 25 24 21 23 30 26 23 32 28 24 24 31 50 49 50 49 41 44 47 48 49 44 36 18 10 33 42 38 33 32 35 31 30 31 27 23 23 27 32 30 25 25
27 26 28 26 28 32 35 34 31 24 26 27 32 44 53 54 48 48 52 54 53 54 49 31 10 31 43 40 35 28 30 26 26 27 19 12 12 13 13 12 12 16 18
28 29 33 33 33 34 35 37 30 24 24 24 26 37 51 59 52 54 59 60 60 56 48 15 29 44 37 35 33 32 27 28 26 12 12 11 11 12 14 16 18 23 28
34 31 31 29 31 32 32 34 38 28 25 25 24 37 49 62 56 60 65 66 67 57 41 18 42 37 34 34 34 29 32 20 12 11 11 10 12 18 23 24 25 28 34
40 38 36 34 28 33 30 32 36 37 31 31 25 36 55 66 63 70 70 73 69 60 20 39 38 35 35 31 30 33 24 13 11 12 11 15 22 23 27 31 36 40 45
47 40 34 28 29 34 34 35 38 38 35 32 27 29 51 65 70 72 75 76 74 62 25 40 38 36 35 29 29 30 19 12 12 11 15 24 25 32 37 39 45 44 23
35 39 40 40 35 31 29 32 36 43 38 34 30 30 51 68 75 76 80 79 73 50 33 39 38 38 34 30 28 28 17 13 13 11 20 26 31 34 40 48 46 23 14
39 39 43 44 44 38 37 37 41 37 32 30 32 33 48 67 74 82 84 81 82 40 36 40 40 40 37 32 31 24 17 13 13 12 24 29 33 41 53 50 28 18 16
33 36 39 39 36 37 36 31 27 27 29 33 37 38 50 74 81 85 83 87 84 34 42 41 43 44 44 40 30 21 15 14 12 12 27 35 43 56 52 43 30 22 20
31 31 30 28 26 25 25 26 26 27 31 35 40 46 63 80 85 88 94 91 89 58 39 58 52 63 54 46 32 19 15 14 12 14 29 38 55 57 54 47 49 55 49
29 24 24 27 30 31 31 33 34 35 34 34 45 65 85 91 95 99 100 98 95 39 41 91 64 78 65 55 31 17 15 14 12 20 31 51 58 58 59 58 62 63 60

GFSMW_700_rhum_132.txt.gz
RH
13 14 14 13 11 15 22 22 19 12 6 5 4 4 12 18 22 21 20 22 24 19 18 19 17 21 26 30 32 34 34 39 42 36 34 36 33 31 32 29 26 42 46
14 14 14 12 14 23 25 23 19 13 9 6 5 7 15 19 20 19 21 24 27 29 30 27 23 25 30 32 34 33 33 35 42 38 40 37 40 42 48 47 49 38 43
13 11 11 15 23 28 27 23 16 12 8 5 5 7 14 15 13 15 17 25 27 23 26 30 31 29 29 31 31 29 27 19 37 46 56 58 58 64 61 87 80 62 78
9 11 15 24 30 31 28 20 11 8 7 7 7 6 7 8 12 16 22 20 11 10 20 32 36 36 37 27 17 8 5 6 27 49 62 70 75 83 68 85 98 97 85
14 18 25 31 35 33 20 12 10 10 10 9 10 9 7 7 9 14 13 8 7 8 8 11 16 17 10 6 5 4 4 4 16 53 57 71 78 86 93 85 98 98 98
26 32 36 39 36 18 15 15 16 15 15 14 13 11 8 8 9 9 9 8 9 9 8 8 8 7 6 6 6 6 5 4 4 50 66 87 65 83 86 98 91 92 77
28 33 35 31 20 16 15 16 16 16 18 18 15 12 12 10 9 9 10 11 11 11 12 12 13 14 16 17 17 15 12 7 3 11 63 80 94 100 100 99 98 94 96
13 14 16 16 18 21 24 26 23 17 17 20 20 19 18 17 15 13 13 14 14 15 16 17 18 18 17 16 16 16 15 12 6 3 15 77 85 100 99 100 100 91 84
20 23 30 31 33 33 33 29 25 19 20 24 27 27 26 23 23 20 17 15 15 16 17 18 18 17 16 15 14 13 13 12 8 5 3 17 87 100 100 100 100 100 97
29 32 32 34 48 45 40 36 32 26 21 22 24 26 28 28 26 24 23 20 19 18 18 18 18 18 17 16 16 15 14 12 9 7 4 4 3 4 9 29 59 86 98
23 23 24 25 27 38 46 42 33 24 24 25 26 26 30 31 32 31 30 31 28 25 23 22 21 20 20 20 18 16 14 12 10 10 10 9 7 6 4 4 4 4 8
20 19 20 21 20 23 31 30 28 23 30 31 30 31 33 37 40 39 38 37 35 30 28 26 25 24 25 24 19 14 12 14 16 18 22 22 21 21 18 14 10 7 6
21 20 21 20 19 18 18 23 26 28 20 20 25 25 26 35 40 42 43 42 38 35 34 33 33 34 31 23 13 13 20 26 28 29 29 30 32 33 34 34 32 30 24
38 20 20 22 19 16 15 17 21 22 20 20 26 27 27 39 48 48 50 47 40 39 40 38 38 39 32 16 12 27 34 33 32 32 32 31 30 29 31 33 33 32 31
43 36 22 22 24 22 19 20 24 24 23 27 31 25 29 34 42 52 55 56 49 46 47 45 45 41 30 12 24 40 38 35 32 33 29 27 28 27 23 22 21 22 27
37 36 27 23 26 27 27 29 32 33 33 33 27 24 26 28 37 52 57 56 50 50 52 53 52 46 23 14 40 42 34 31 30 29 28 29 23 15 14 13 13 14 14
44 32 30 31 28 28 28 28 27 28 33 37 28 25 27 31 41 58 63 66 57 56 58 60 58 51 14 36 39 35 32 32 29 30 29 15 13 12 9 9 10 13 16
45 44 41 36 34 34 34 32 30 30 31 36 41 33 27 27 34 52 71 77 64 63 65 66 60 46 20 40 35 34 32 29 32 29 16 12 11 9 8 11 16 21 25
39 34 35 40 41 38 37 33 30 32 31 37 41 42 34 31 29 38 69 91 71 71 72 72 65 34 34 37 35 34 30 32 32 23 13 11 10 9 15 18 21 26 31
42 42 40 37 38 42 41 40 37 34 32 36 38 42 39 36 31 38 70 100 81 78 75 78 70 32 37 37 36 32 30 30 31 20 13 12 10 16 21 22 29 29 37
38 36 36 37 38 41 43 43 43 40 38 36 39 43 45 40 36 49 73 100 98 91 89 84 78 34 37 36 37 38 37 32 30 19 13 12 12 21 24 29 30 37 42
32 31 30 31 35 37 38 37 35 36 36 36 36 36 33 37 42 53 85 100 100 98 98 96 83 32 37 38 45 74 77 33 27 18 13 11 14 23 27 31 41 43 37
31 31 30 29 28 29 28 28 26 26 27 28 29 31 34 39 47 59 87 100 100 99 99 94 84 33 49 48 81 93 67 35 24 16 13 12 14 24 29 39 48 45 39
50 49 46 44 44 31 23 26 25 27 28 29 31 35 38 43 52 63 92 100 99 97 98 96 72 58 50 89 90 94 91 43 21 15 14 12 17 28 34 51 50 48 40
39 36 34 35 44 51 53 50 47 47 50 52 50 39 39 43 55 72 97 98 98 97 97 96 85 81 78 94 94 94 94 50 18 15 14 14 26 35 53 57 53 48 45
41 37 31 24 23 27 35 57 58 64 63 71 67 60 50 53 64 82 99 100 99 96 97 96 95 67 92 95 95 94 95 42 17 16 13 17 34 47 62 61 58 53 51

GFSMW_700_rhum_135.txt.gz
RH
5 7 10 13 14 15 13 12 18 19 19 17 11 7 4 4 7 12 15 14 17 19 20 18 19 24 24 22 20 24 26 28 28 26 19 20 20 27 34 37 37 38 34
12 12 13 14 15 14 13 19 21 23 20 12 8 6 5 6 9 12 10 9 11 13 14 12 16 23 28 28 27 29 27 19 9 8 7 8 17 31 37 47 68 60 73
14 14 13 13 12 14 21 23 27 24 12 7 6 6 6 5 5 6 6 7 11 12 8 9 12 16 20 23 23 18 9 6 5 4 5 15 21 29 34 50 60 60 83
10 10 12 13 16 24 30 32 27 11 8 8 8 7 6 7 6 6 7 10 12 8 7 8 8 7 7 7 7 6 7 9 10 9 5 24 42 41 31 39 65 68 98
15 15 17 23 30 34 35 24 11 11 10 10 10 10 9 9 8 8 9 10 9 8 8 9 9 9 10 11 13 15 16 16 16 15 12 6 38 59 53 37 52 87 98
18 25 31 34 35 34 19 13 12 12 12 12 12 14 14 13 12 10 8 8 8 9 10 10 12 13 14 16 16 16 16 15 15 15 14 10 6 45 58 46 44 74 94
19 21 19 16 16 16 15 15 18 18 18 15 15 18 19 17 16 14 13 11 10 10 11 13 14 16 17 17 16 16 14 13 13 13 12 11 7 6 47 72 70 54 65
13 15 18 19 18 19 21 22 24 27 27 20 15 17 19 19 20 19 18 17 16 14 14 15 15 17 17 17 16 15 15 14 13 13 11 9 6 4 7 21 55 75 92
16 16 18 20 22 23 24 29 35 40 38 26 18 16 18 18 19 21 22 21 21 20 19 18 17 16 16 16 16 16 15 15 14 13 12 10 7 5 4 4 5 8 33
20 20 21 21 21 22 24 26 27 36 42 35 22 24 25 27 27 28 31 30 29 27 24 22 22 20 20 19 18 19 19 18 15 13 12 12 12 11 9 7 6 4 4
26 21 17 17 18 20 20 19 21 29 35 36 25 26 26 27 28 29 32 33 35 35 32 29 26 25 24 23 23 24 22 17 14 14 16 20 23 24 23 22 21 18 14
33 42 30 16 16 20 18 16 15 16 22 26 24 20 16 18 28 28 31 34 39 38 36 33 30 31 31 29 30 28 21 14 15 22 27 28 29 29 31 30 30 30 31
24 42 41 32 17 20 21 19 17 16 18 19 23 21 21 24 31 29 34 40 50 51 46 44 36 38 37 36 36 30 17 13 22 28 30 30 32 31 29 28 28 28 30
34 45 35 36 27 21 22 23 22 22 24 25 26 28 33 34 28 27 29 36 54 59 56 55 44 44 44 44 42 29 12 21 30 32 32 31 31 27 27 27 25 22 20
46 45 42 32 26 24 22 23 26 28 31 33 32 31 34 33 27 27 30 36 51 62 61 65 53 53 53 52 46 26 13 37 37 32 32 32 29 28 28 20 16 15 14
47 46 45 44 43 39 37 36 36 35 35 36 36 33 35 38 30 27 30 36 53 65 69 70 57 57 60 60 53 19 27 38 34 33 33 30 30 28 18 16 12 8 8
46 44 43 39 35 42 45 42 40 39 36 38 42 40 38 38 43 40 29 29 40 66 76 82 68 67 68 70 62 20 39 36 33 32 30 32 28 21 14 11 8 8 11
44 42 43 42 41 39 40 44 45 45 42 40 42 40 38 39 44 48 44 36 41 75 100 100 86 78 78 80 73 26 38 34 33 30 30 31 25 16 12 10 8 13 18
39 39 38 37 36 35 36 38 40 43 45 46 45 42 39 38 43 46 48 45 41 53 94 99 97 91 87 87 79 30 36 35 32 30 36 32 24 15 12 10 13 18 23
33 30 29 28 28 29 30 33 35 37 39 38 37 36 39 42 44 48 50 51 45 51 99 97 98 94 93 90 82 33 36 36 39 64 72 32 22 14 12 11 18 21 27
32 32 34 33 31 29 28 26 26 26 26 26 26 26 26 26 28 31 33 36 44 64 92 96 97 95 94 92 80 33 35 36 61 90 76 46 24 14 12 12 22 25 27
40 43 45 45 46 45 44 42 39 36 36 30 24 26 26 27 29 31 34 39 47 50 92 90 97 87 93 96 76 32 34 56 84 94 89 61 20 14 12 14 25 29 32
49 45 40 35 30 27 25 25 23 26 39 48 52 53 50 46 40 36 37 43 57 64 88 99 96 91 95 95 75 33 44 80 92 95 89 46 18 15 12 17 27 30 44
55 52 51 53 54 51 47 45 34 24 21 38 49 53 59 62 60 54 41 45 62 77 98 95 95 96 95 97 77 62 62 92 94 94 92 50 17 15 12 21 30 39 52
66 56 45 40 37 32 25 20 16 11 14 18 26 34 62 69 69 67 58 56 64 88 97 98 97 97 97 96 96 92 95 95 95 93 80 25 17 14 15 30 37 52 57
74 68 33 29 23 18 18 23 32 26 8 6 15 30 39 60 72 75 79 79 82 90 97 94 97 96 93 96 94 93 95 96 94 91 68 20 18 14 24 35 48 61 60

GFSMW_700_rhum_141.txt.gz
RH
4 4 4 7 12 14 14 14 14 15 14 16 14 14 15 11 4 4 3 3 4 4 4 5 6 6 6 6 7 8 8 8 7 7 7 8 10 11 11 11 11 12 15
7 9 11 10 8 8 9 10 13 14 16 17 21 17 10 5 6 5 5 4 4 5 5 6 6 7 7 7 8 8 8 9 10 11 12 11 11 11 10 10 10 12 22
13 10 8 8 8 9 9 10 13 16 23 23 16 8 7 7 7 7 7 6 6 6 6 6 6 7 7 8 9 10 10 11 12 12 11 10 9 8 9 9 9 9 11
8 8 10 10 11 13 16 18 24 25 19 11 10 10 10 10 9 9 8 8 8 8 8 8 7 7 8 8 9 10 11 11 11 11 11 10 9 9 8 9 10 10 11
4 5 7 9 12 18 23 19 13 12 14 16 16 17 18 16 11 9 9 10 10 10 10 10 10 9 9 9 9 10 10 9 10 10 10 11 11 10 10 10 10 10 10
5 6 7 8 10 11 10 11 11 16 19 20 22 23 26 25 17 12 11 12 12 12 13 14 13 12 12 12 11 10 10 10 10 10 10 11 11 12 13 12 11 11 9
10 11 11 11 12 12 13 14 16 18 20 21 23 27 29 34 24 17 18 20 21 20 22 21 19 17 16 15 14 13 14 14 14 14 13 13 14 15 14 12 12 12 12
11 14 15 17 18 17 15 14 15 16 19 21 24 26 28 34 31 22 23 22 22 26 26 26 26 25 23 22 19 18 17 17 18 18 18 18 18 16 14 14 15 16 17
13 21 34 30 39 42 40 19 14 17 19 18 18 18 22 27 29 24 22 18 20 20 27 27 25 26 28 29 28 26 23 23 23 24 24 24 20 16 15 18 20 21 22
20 26 28 20 25 40 34 35 18 15 18 16 14 14 17 22 25 24 23 21 24 28 31 31 29 32 36 39 39 37 33 29 28 29 30 28 19 15 19 23 26 26 27
21 20 22 21 25 41 35 28 28 18 16 18 19 17 17 20 21 22 24 28 28 31 34 32 29 33 38 46 49 47 45 39 39 38 38 32 19 17 25 29 29 30 30
27 24 26 26 37 43 40 38 24 19 19 19 19 20 22 24 26 28 28 27 26 30 32 31 32 39 47 54 67 68 65 54 46 44 44 37 18 21 33 34 31 30 30
31 29 38 42 43 43 41 37 37 38 35 31 30 29 31 31 29 28 27 28 29 30 34 36 33 41 49 58 75 76 72 66 53 50 50 46 19 24 39 34 31 31 29
33 44 40 38 40 41 40 37 38 37 37 37 39 39 39 39 39 38 38 38 37 38 38 40 44 38 42 54 76 89 86 82 67 62 61 57 23 27 39 32 32 30 30
42 41 36 34 35 36 39 41 40 40 40 39 39 41 42 42 42 42 43 43 42 42 40 39 43 49 43 49 82 96 98 96 79 69 69 66 33 31 36 32 30 30 30
43 37 36 38 38 37 36 34 32 32 32 33 33 34 34 35 36 36 35 34 35 37 38 40 43 49 52 46 58 95 96 99 92 77 74 73 40 33 35 33 30 38 56
38 37 38 37 32 29 27 26 25 25 26 26 26 26 26 25 25 25 25 24 25 26 27 29 35 45 54 57 57 71 82 98 97 85 78 79 44 33 34 30 34 64 65
40 39 40 39 37 35 36 36 36 34 33 33 34 34 32 32 33 35 38 39 34 29 27 27 29 32 41 53 60 62 99 90 99 95 88 86 47 33 34 32 54 76 61
40 45 47 44 42 40 39 38 36 35 34 33 32 32 32 31 29 25 22 21 29 42 48 47 47 39 37 43 51 62 63 100 95 96 93 92 52 32 32 40 66 81 80
46 52 50 49 49 49 46 41 33 26 19 13 8 10 12 14 18 21 30 38 39 31 23 41 56 56 47 43 51 58 70 100 100 96 94 95 62 45 36 48 75 85 91
55 56 56 58 61 62 61 59 54 50 35 31 39 32 14 8 7 5 5 6 12 25 26 22 55 60 58 49 51 62 68 80 98 96 95 95 79 47 48 66 82 95 89
56 57 58 61 60 59 61 60 43 15 8 6 4 3 4 6 4 3 3 3 5 6 9 13 34 58 64 55 53 65 94 97 95 96 95 97 94 81 65 88 96 96 92
58 59 59 59 60 62 55 24 12 10 6 3 2 2 2 2 2 2 2 2 4 10 10 12 19 51 70 63 57 62 95 91 96 96 96 96 96 87 74 97 96 95 89
65 65 66 62 54 38 24 18 8 4 3 2 2 2 2 2 2 3 4 4 6 9 16 20 39 72 82 78 64 94 96 96 97 96 96 98 96 96 97 96 96 95 69
71 68 63 56 48 34 14 5 4 3 2 2 2 3 5 7 6 5 5 6 7 14 24 45 72 78 97 99 94 97 100 98 96 94 95 96 96 96 97 96 95 89 38
71 66 55 30 11 7 5 4 4 4 5 5 9 12 11 8 7 9 7 8 9 12 31 61 85 88 96 97 98 98 97 96 96 92 95 96 95 96 96 96 95 62 18

GFSMW_700_rhum_144.txt.gz
RH
7 6 5 6 14 12 9 8 8 9 12 14 16 16 18 13 7 5 5 5 5 5 4 5 5 5 5 5 6 7 7 8 8 9 11 11 11 11 10 10 9 9 8
5 6 10 13 10 9 9 9 10 12 16 20 23 20 12 8 8 7 7 6 6 6 6 5 5 5 5 5 6 6 8 9 9 10 10 11 11 10 9 9 9 9 8
11 10 7 8 9 10 12 14 17 22 22 24 15 10 11 12 11 10 8 8 8 8 8 8 7 7 7 7 7 7 7 8 8 8 9 9 8 8 8 9 9 9 9
7 6 6 7 10 12 14 18 20 21 14 11 11 13 15 15 15 15 12 9 10 10 9 8 9 9 9 8 8 8 8 8 8 9 9 9 9 8 7 8 10 10 10
4 4 5 6 7 10 12 10 10 11 10 11 14 16 19 20 19 20 16 11 10 10 11 12 12 12 12 12 12 12 12 12 11 10 10 10 10 11 10 10 10 12 11
6 7 9 10 10 11 11 11 12 13 15 16 18 19 21 22 23 24 22 16 17 20 21 21 20 20 20 20 20 18 17 15 14 13 13 13 14 14 13 13 14 13 12
9 11 12 14 15 17 21 21 15 14 14 15 17 19 20 22 24 26 27 20 20 18 17 18 21 22 21 22 23 24 23 22 19 17 17 18 19 18 18 18 16 14 13
12 14 17 25 30 27 35 39 38 23 14 13 17 18 18 19 22 26 28 22 20 16 15 19 24 28 27 25 24 24 26 26 26 24 24 24 24 25 24 21 17 16 17
16 20 19 22 22 19 16 36 33 32 22 14 17 17 15 15 17 23 25 25 23 20 20 26 29 30 29 25 27 32 35 35 34 33 31 29 28 28 28 23 18 17 19
16 16 19 19 22 21 18 38 39 30 24 19 16 18 18 17 17 20 26 24 23 25 24 25 27 30 30 27 27 31 36 40 42 41 39 36 34 35 33 24 18 21 26
16 21 23 21 24 22 30 42 41 38 37 28 20 18 19 19 20 21 23 25 24 25 24 24 24 27 28 28 28 31 36 42 50 50 50 45 43 45 42 26 19 26 32
24 25 24 29 36 39 40 41 42 39 36 36 38 36 33 31 30 30 32 33 33 32 33 32 33 34 34 34 32 33 43 53 70 70 67 59 54 54 52 32 19 31 35
28 28 35 42 39 34 34 37 38 38 38 38 38 38 39 38 38 39 39 40 40 40 41 42 42 40 39 41 42 43 52 66 85 90 81 74 63 62 60 44 21 36 35
29 33 36 40 36 33 34 36 37 37 38 39 39 39 39 39 39 39 39 38 37 37 38 40 42 42 43 44 46 49 50 70 90 98 97 92 73 66 68 53 27 36 33
37 36 42 38 35 36 36 33 30 27 25 24 25 25 25 25 25 25 25 25 25 25 26 25 27 32 37 44 47 51 53 52 66 87 91 96 89 73 74 62 32 35 32
39 45 39 36 37 36 34 31 30 30 29 29 29 29 30 31 30 29 30 30 32 33 33 34 31 25 26 28 34 45 55 58 59 69 75 84 98 87 79 69 34 33 32
46 41 37 37 39 40 39 36 34 32 30 28 27 26 23 21 21 22 23 25 26 26 24 25 28 38 47 48 40 36 36 49 55 60 86 80 99 95 85 79 40 33 30
50 45 40 40 44 44 42 41 41 41 42 41 36 31 23 16 10 6 4 5 7 10 12 17 26 32 29 32 51 52 44 39 44 58 66 100 87 98 88 88 45 32 30
55 48 42 46 50 49 50 53 56 55 54 51 42 25 9 4 3 4 6 6 6 6 5 4 4 5 18 29 43 61 57 50 45 54 75 91 94 98 94 91 55 32 40
58 49 48 54 54 55 60 60 56 52 52 42 14 5 5 5 5 4 4 3 3 2 2 3 4 5 7 15 44 68 64 58 51 51 83 92 100 97 96 95 84 50 57
58 52 55 55 56 59 58 57 57 57 43 16 8 8 6 4 3 2 2 2 2 2 2 2 3 4 12 15 31 61 66 63 58 66 88 99 99 97 97 96 86 39 73
61 58 57 57 59 62 64 63 51 34 21 12 8 6 4 3 2 2 2 2 2 3 3 3 3 4 9 21 23 49 71 70 61 90 100 100 98 95 96 96 89 92 77
65 61 65 69 68 69 63 43 21 11 8 6 4 3 2 2 2 2 3 3 5 6 6 6 5 5 8 22 30 62 79 73 69 79 100 98 96 97 96 98 94 90 91
73 72 72 72 60 32 14 10 8 5 4 3 2 2 2 3 4 8 8 8 9 8 9 10 9 8 11 42 76 97 92 80 84 96 98 97 97 95 96 97 96 93 93
67 60 40 21 15 13 10 7 5 4 3 2 3 4 8 12 12 11 13 16 17 24 20 18 16 14 24 82 100 100 98 96 98 97 96 97 96 96 98 96 94 95 95
30 18 17 18 18 15 11 8 6 5 4 5 15 31 31 21 22 26 27 71 85 83 50 37 40 25 44 95 97 99 97 97 97 95 94 96 97 97 97 89 93 95 95

GFSMW_700_rhum_147.txt.gz
RH
10 7 6 6 8 13 13 8 8 9 9 11 12 13 20 15 8 7 7 7 6 6 6 6 6 5 5 5 6 6 6 6 6 7 7 7 8 9 9 9 8 8 7
6 6 6 8 13 11 8 10 10 12 13 17 19 15 11 10 10 10 11 10 8 7 7 8 8 7 7 6 6 6 6 6 6 6 7 8 8 8 8 9 8 8 8
12 12 12 9 7 7 9 10 13 14 17 16 12 10 10 12 13 14 15 14 12 9 8 9 9 9 8 8 8 8 8 8 8 8 8 7 8 8 8 8 9 9 9
7 6 5 4 4 6 8 10 11 13 11 11 11 12 14 17 18 18 18 19 16 12 10 10 10 11 12 13 13 12 11 11 10 10 10 10 9 9 9 10 10 10 10
4 4 4 4 5 7 8 8 9 11 11 13 14 14 16 17 18 21 21 22 22 17 18 18 18 19 19 19 18 17 17 16 16 15 14 12 12 11 11 11 12 13 12
5 5 6 8 10 11 12 13 18 24 20 14 12 12 13 16 17 19 21 22 27 22 21 19 17 16 17 20 21 20 20 19 18 18 18 17 16 16 16 16 16 15 15
7 8 10 12 13 16 27 30 36 39 38 33 17 12 14 17 16 16 18 20 26 27 21 18 16 15 18 23 25 24 23 23 23 22 22 22 21 20 20 20 20 20 20
7 9 11 13 15 20 20 18 17 31 35 30 29 19 15 15 15 15 15 19 24 25 21 19 18 20 22 23 26 28 26 25 28 29 29 29 27 27 26 26 26 25 24
9 10 11 12 16 17 18 20 19 31 39 35 25 21 17 16 17 17 16 17 20 21 21 23 25 24 22 24 26 29 30 28 31 34 37 39 38 36 34 33 34 34 29
10 13 16 22 21 19 23 24 32 41 41 38 37 35 28 24 21 20 21 22 24 26 27 29 29 29 29 30 31 31 32 32 35 39 46 56 55 49 44 41 39 39 37
14 21 24 24 22 29 37 36 36 37 40 40 38 38 38 37 36 35 34 34 36 38 41 41 40 40 40 41 40 39 38 38 40 45 52 59 64 59 55 50 47 46 44
22 24 24 25 36 41 39 33 30 31 34 38 40 40 41 41 41 42 42 43 43 43 43 43 43 42 41 42 42 42 42 42 42 45 47 57 71 74 69 62 55 55 54
21 28 25 30 33 39 38 33 31 32 35 37 38 39 39 38 37 34 32 28 25 24 23 22 22 23 25 26 30 34 40 44 47 50 52 58 65 86 89 80 66 64 62
27 30 27 35 37 40 35 33 32 32 30 27 25 24 24 25 25 25 24 23 22 22 22 22 23 24 26 26 26 25 26 29 36 46 54 54 57 72 95 94 87 74 69
32 32 36 41 44 37 34 34 35 34 32 32 32 30 28 24 21 18 16 14 12 12 12 13 16 20 22 22 24 32 37 34 31 36 46 55 68 84 100 80 99 90 77
32 39 47 46 40 36 36 39 40 38 37 36 37 40 43 42 34 27 24 15 10 8 7 6 5 4 6 9 19 28 28 32 44 46 42 49 56 66 97 77 97 98 86
39 48 50 45 42 40 42 44 44 44 46 47 49 49 48 43 29 10 4 4 4 5 5 5 4 4 6 7 6 5 7 20 32 38 52 50 57 68 75 100 90 98 94
52 55 55 52 48 45 46 49 50 51 52 53 52 49 44 27 9 5 7 8 9 8 8 7 6 5 4 3 5 8 8 6 16 34 55 60 55 63 80 94 97 93 98
58 59 59 55 50 49 51 52 52 54 55 53 49 33 19 13 10 10 9 6 4 3 2 2 2 2 2 2 2 3 6 9 10 32 58 65 60 64 83 97 98 97 97
60 63 64 58 54 54 54 54 55 56 55 50 30 16 11 10 8 4 2 2 2 2 1 1 1 2 2 3 4 4 4 6 13 21 43 67 68 72 95 100 99 96 98
64 69 67 60 58 56 56 58 63 60 45 18 11 9 5 3 3 2 2 2 1 1 2 2 2 3 5 5 8 8 7 10 25 33 37 77 86 86 100 100 97 97 96
75 71 67 63 58 62 68 65 38 15 12 10 6 4 3 2 2 2 2 2 3 4 5 5 5 6 8 10 9 9 10 34 53 42 72 93 99 100 100 99 97 96 96
74 73 68 69 71 68 37 16 15 14 12 8 5 3 3 2 2 2 3 7 11 10 9 15 23 26 26 18 16 13 13 82 100 78 100 100 100 99 100 98 97 96 97
76 72 74 70 46 19 18 19 19 18 13 7 4 4 3 3 4 9 21 19 25 28 65 68 67 65 60 28 24 23 21 79 98 95 99 98 100 100 98 96 96 96 96
75 74 58 27 19 22 28 31 31 27 19 8 6 6 6 7 9 29 34 45 46 60 77 86 91 85 78 43 30 28 33 80 97 97 96 96 97 97 96 96 96 96 94
67 48 24 22 24 31 38 39 38 35 18 8 10 12 11 9 17 45 37 57 69 69 76 87 99 93 96 82 46 42 52 80 97 89 97 96 96 96 96 96 96 95 95

GFSMW_700_rhum_150.txt.gz
RH
17 10 9 7 6 6 6 10 12 8 8 9 10 11 14 14 8 7 7 7 8 9 9 7 6 6 6 6 6 6 6 5 6 6 6 6 6 6 7 8 8 8 8
13 7 6 6 7 9 12 9 8 7 9 10 11 10 9 8 9 10 11 12 12 12 12 9 8 8 8 7 7 7 7 7 6 6 7 7 6 7 7 7 8 7 7
8 7 9 11 12 10 7 6 6 8 8 8 8 8 10 10 13 14 15 15 16 17 16 12 10 10 10 10 10 11 12 13 12 11 10 9 9 9 9 8 9 9 9
11 8 8 7 5 4 5 5 6 8 8 8 10 11 12 14 15 15 17 19 20 20 20 16 15 16 17 18 18 19 18 17 17 17 17 16 15 13 12 11 11 11 10
8 5 4 4 4 6 7 9 10 13 17 21 25 23 16 14 13 16 19 20 20 21 21 19 16 16 15 14 14 16 19 19 19 18 18 18 18 17 15 14 14 15 14
8 6 5 6 8 10 11 12 19 34 32 36 36 36 31 16 14 17 18 18 18 20 18 19 18 17 16 15 17 20 23 24 24 21 21 22 22 21 21 19 19 18 18
16 10 8 9 10 12 14 19 20 17 16 20 35 32 28 23 17 16 16 16 16 17 18 18 20 19 18 20 21 20 20 21 23 24 24 24 26 27 28 26 25 24 23
15 10 9 10 11 11 14 15 16 17 17 24 38 38 34 24 19 18 17 18 17 17 18 20 21 23 26 27 26 25 25 25 27 28 27 26 26 27 28 31 31 28 27
11 9 10 11 11 13 16 16 20 24 31 40 41 40 38 37 34 29 26 24 24 24 26 29 31 34 37 38 39 38 38 37 37 37 36 35 35 35 36 37 39 37 34
10 10 12 16 18 18 18 23 35 36 34 35 38 40 40 38 38 37 38 38 38 39 39 41 41 42 42 42 40 38 40 39 42 42 42 42 42 42 44 46 52 51 46
12 12 17 18 18 18 26 38 38 35 32 31 34 39 40 39 39 40 42 42 42 42 41 38 32 28 25 26 24 25 27 27 30 35 40 43 46 46 47 52 60 68 63
12 15 17 16 20 22 31 36 38 35 33 34 36 37 37 36 34 31 27 25 25 25 24 23 23 23 24 24 24 24 25 25 24 24 25 29 40 46 50 54 69 79 86
14 19 17 18 22 29 35 40 38 34 33 32 29 28 26 26 27 27 26 24 21 18 16 13 11 9 8 9 12 14 16 18 19 21 24 28 29 32 42 54 55 60 88
18 20 22 27 30 36 44 41 36 35 36 36 35 34 32 32 33 39 42 36 25 18 13 7 5 4 5 5 5 5 5 5 7 15 22 29 36 40 42 56 62 67 82
23 26 31 32 37 48 45 39 38 40 41 41 39 39 40 45 47 45 42 30 16 5 4 5 7 9 9 8 8 7 6 6 6 6 7 16 32 44 50 52 66 71 83
27 32 37 35 46 51 43 41 42 44 45 45 46 47 49 49 48 42 28 15 8 6 9 10 8 5 4 3 3 4 4 4 4 4 9 10 15 37 54 60 67 78 66
38 45 46 44 55 51 48 46 46 47 49 49 51 52 52 49 40 17 11 11 10 9 6 4 3 3 3 2 2 2 2 2 2 2 2 6 11 27 54 64 68 72 83
47 52 56 58 58 57 54 52 51 52 53 53 53 54 51 31 14 12 10 7 5 4 4 3 2 1 1 1 1 1 1 2 2 2 3 3 8 28 60 75 74 70 77
57 60 61 62 62 62 60 57 55 55 55 56 59 41 14 12 9 7 6 5 4 2 2 1 1 1 1 1 2 3 3 3 4 4 5 6 8 26 62 80 80 81 80
59 62 65 68 68 65 61 59 58 57 61 60 23 13 12 10 7 5 3 2 2 2 1 1 2 2 2 4 6 13 16 12 8 7 7 8 12 41 70 92 90 96 96
64 67 71 73 72 67 64 61 62 66 44 16 16 16 16 14 8 4 2 2 2 2 2 3 3 5 9 22 44 56 63 44 19 13 9 10 30 88 95 100 94 100 100
64 71 77 78 72 68 64 68 66 26 19 18 18 18 17 14 6 3 4 4 4 4 7 9 10 20 34 43 43 55 70 56 24 19 17 13 89 99 97 100 96 99 99
74 82 83 78 69 67 72 63 22 22 21 20 21 20 18 9 5 5 6 6 7 14 26 30 35 38 43 42 44 46 60 70 32 28 27 21 96 97 98 97 98 100 97
89 92 86 72 73 73 57 24 25 28 30 32 27 22 12 6 7 10 12 11 10 28 47 48 59 57 56 58 55 51 56 66 32 47 40 38 97 98 97 97 96 96 97
97 92 79 75 71 56 31 28 32 41 41 32 23 12 6 8 13 18 18 11 13 51 58 55 63 72 68 62 72 74 77 79 48 52 80 54 94 96 98 97 97 96 96
95 86 78 74 62 45 39 44 51 44 29 20 7 6 9 17 28 28 17 8 16 57 60 67 85 75 64 52 64 81 88 85 81 88 98 89 98 100 96 96 96 96 96